Wetterdaten: Freitag, 03.04.2020
Datum Zeit Temp. Aussen Temp. o. S. Temp +5cm Feuchte Auss Luftdruck Regen Sonnenschein Regendauer Solar Windben Empfang
03.04.2020 00:00 7,9 C 7,2 C 6,7 C 73 % 1012,4 hPa 0,0 l/m 0 min 0 min 0 W/m 3,2 km/h (1 Bft) 97,87 %
03.04.2020 00:02 7,9 C 7,2 C 6,7 C 73 % 1012,2 hPa 0,0 l/m 0 min 0 min 0 W/m 3,2 km/h (1 Bft) 94,74 %
03.04.2020 00:04 7,9 C 7,2 C 6,7 C 73 % 1012,2 hPa 0,0 l/m 0 min 0 min 0 W/m 0,0 km/h (0 Bft) 97,87 %
03.04.2020 00:08 7,9 C 7,2 C 6,7 C 73 % 1012,3 hPa 0,0 l/m 0 min 0 min 0 W/m 6,4 km/h (2 Bft) 97,85 %
03.04.2020 00:10 7,9 C 7,2 C 6,7 C 73 % 1012,3 hPa 0,0 l/m 0 min 0 min 0 W/m 3,2 km/h (1 Bft) 97,87 %
03.04.2020 00:12 7,9 C 7,2 C 6,7 C 73 % 1012,3 hPa 0,0 l/m 0 min 0 min 0 W/m 12,9 km/h (3 Bft) 97,87 %
03.04.2020 00:14 7,9 C 7,2 C 6,7 C 73 % 1012,2 hPa 0,0 l/m 0 min 0 min 0 W/m 12,9 km/h (3 Bft) 95,74 %
03.04.2020 00:16 8,0 C 7,2 C 6,7 C 73 % 1012,2 hPa 0,0 l/m 0 min 0 min 0 W/m 6,4 km/h (2 Bft) 97,87 %
03.04.2020 00:18 8,0 C 7,2 C 7,2 C 73 % 1012,3 hPa 0,0 l/m 0 min 0 min 0 W/m 6,4 km/h (2 Bft) 95,74 %
03.04.2020 00:20 8,0 C 7,2 C 7,2 C 73 % 1012,3 hPa 0,0 l/m 0 min 0 min 0 W/m 19,3 km/h (3 Bft) 97,83 %
03.04.2020 00:22 8,1 C 7,2 C 6,7 C 73 % 1012,4 hPa 0,0 l/m 0 min 2 min 0 W/m 12,9 km/h (3 Bft) 100,00 %
03.04.2020 00:24 8,1 C 7,2 C 6,7 C 73 % 1012,3 hPa 0,0 l/m 0 min 2 min 0 W/m 12,9 km/h (3 Bft) 97,87 %
03.04.2020 00:26 8,1 C 7,2 C 6,1 C 74 % 1012,3 hPa 0,0 l/m 0 min 0 min 0 W/m 12,9 km/h (3 Bft) 100,00 %
03.04.2020 00:28 8,1 C 7,2 C 6,7 C 74 % 1012,3 hPa 0,0 l/m 0 min 0 min 0 W/m 22,5 km/h (4 Bft) 97,87 %
03.04.2020 00:30 8,1 C 7,2 C 6,7 C 74 % 1012,3 hPa 0,0 l/m 0 min 0 min 0 W/m 6,4 km/h (2 Bft) 97,87 %
03.04.2020 00:32 8,1 C 7,2 C 6,7 C 74 % 1012,3 hPa 0,0 l/m 0 min 0 min 0 W/m 19,3 km/h (3 Bft) 97,83 %
03.04.2020 00:34 8,1 C 7,2 C 6,7 C 73 % 1012,4 hPa 0,0 l/m 0 min 0 min 0 W/m 0,0 km/h (0 Bft) 97,87 %
03.04.2020 00:36 8,1 C 7,2 C 6,7 C 74 % 1012,4 hPa 0,0 l/m 0 min 0 min 0 W/m 3,2 km/h (1 Bft) 95,74 %
03.04.2020 00:38 8,1 C 7,2 C 6,7 C 74 % 1012,4 hPa 0,0 l/m 0 min 0 min 0 W/m 9,7 km/h (2 Bft) 100,00 %
03.04.2020 00:40 8,1 C 7,2 C 6,7 C 74 % 1012,4 hPa 0,0 l/m 0 min 2 min 0 W/m 6,4 km/h (2 Bft) 100,00 %
03.04.2020 00:42 8,1 C 6,7 C 6,1 C 74 % 1012,3 hPa 0,0 l/m 0 min 2 min 0 W/m 6,4 km/h (2 Bft) 100,00 %
03.04.2020 00:44 8,1 C 6,7 C 5,6 C 74 % 1012,4 hPa 0,0 l/m 0 min 2 min 0 W/m 6,4 km/h (2 Bft) 97,83 %
03.04.2020 00:46 8,1 C 6,1 C 5,6 C 75 % 1012,4 hPa 0,0 l/m 0 min 2 min 0 W/m 6,4 km/h (2 Bft) 95,74 %
03.04.2020 00:48 8,1 C 6,1 C 5,6 C 76 % 1012,4 hPa 0,0 l/m 0 min 2 min 0 W/m 6,4 km/h (2 Bft) 95,74 %
03.04.2020 00:50 8,1 C 5,6 C 5,0 C 76 % 1012,3 hPa 0,0 l/m 0 min 2 min 0 W/m 9,7 km/h (2 Bft) 95,74 %
03.04.2020 00:52 8,1 C 5,6 C 5,0 C 77 % 1012,3 hPa 0,0 l/m 0 min 2 min 0 W/m 16,1 km/h (3 Bft) 95,74 %
03.04.2020 00:54 8,1 C 5,6 C 5,0 C 77 % 1012,3 hPa 0,0 l/m 0 min 2 min 0 W/m 6,4 km/h (2 Bft) 95,74 %
03.04.2020 00:56 8,0 C 5,6 C 5,0 C 78 % 1012,2 hPa 0,0 l/m 0 min 2 min 0 W/m 9,7 km/h (2 Bft) 91,30 %
03.04.2020 00:58 8,0 C 5,6 C 5,0 C 78 % 1012,2 hPa 0,0 l/m 0 min 0 min 0 W/m 12,9 km/h (3 Bft) 95,74 %
03.04.2020 01:00 7,9 C 5,6 C 5,0 C 78 % 1012,2 hPa 0,0 l/m 0 min 0 min 0 W/m 3,2 km/h (1 Bft) 95,74 %
03.04.2020 01:02 7,9 C 5,6 C 5,0 C 78 % 1012,1 hPa 0,0 l/m 0 min 2 min 0 W/m 6,4 km/h (2 Bft) 93,62 %
03.04.2020 01:04 7,9 C 5,6 C 5,0 C 79 % 1012,2 hPa 0,0 l/m 0 min 0 min 0 W/m 6,4 km/h (2 Bft) 95,74 %
03.04.2020 01:06 7,9 C 6,1 C 5,0 C 79 % 1012,1 hPa 0,0 l/m 0 min 0 min 0 W/m 16,1 km/h (3 Bft) 95,65 %
03.04.2020 01:08 7,8 C 6,1 C 5,0 C 79 % 1012,1 hPa 0,0 l/m 0 min 0 min 0 W/m 16,1 km/h (3 Bft) 95,74 %
03.04.2020 01:10 7,8 C 6,1 C 5,0 C 79 % 1012,0 hPa 0,0 l/m 0 min 0 min 0 W/m 9,7 km/h (2 Bft) 95,74 %
03.04.2020 01:12 7,8 C 6,1 C 5,0 C 79 % 1012,0 hPa 0,0 l/m 0 min 0 min 0 W/m 9,7 km/h (2 Bft) 97,87 %
03.04.2020 01:14 7,8 C 6,1 C 5,0 C 79 % 1012,0 hPa 0,0 l/m 0 min 0 min 0 W/m 3,2 km/h (1 Bft) 95,74 %
03.04.2020 01:16 7,8 C 6,1 C 5,0 C 79 % 1012,0 hPa 0,0 l/m 0 min 0 min 0 W/m 16,1 km/h (3 Bft) 97,87 %
03.04.2020 01:18 7,8 C 6,7 C 5,6 C 79 % 1012,0 hPa 0,0 l/m 0 min 0 min 0 W/m 6,4 km/h (2 Bft) 97,83 %
03.04.2020 01:20 7,8 C 6,7 C 5,6 C 79 % 1012,1 hPa 0,0 l/m 0 min 0 min 0 W/m 9,7 km/h (2 Bft) 97,87 %
03.04.2020 01:22 7,8 C 6,7 C 5,6 C 79 % 1011,9 hPa 0,0 l/m 0 min 0 min 0 W/m 12,9 km/h (3 Bft) 97,87 %
03.04.2020 01:24 7,8 C 7,2 C 5,6 C 79 % 1011,9 hPa 0,0 l/m 0 min 0 min 0 W/m 6,4 km/h (2 Bft) 97,87 %
03.04.2020 01:26 7,8 C 7,2 C 5,6 C 79 % 1011,9 hPa 0,0 l/m 0 min 0 min 0 W/m 12,9 km/h (3 Bft) 95,74 %
03.04.2020 01:28 7,8 C 7,2 C 6,1 C 79 % 1011,9 hPa 0,0 l/m 0 min 0 min 0 W/m 16,1 km/h (3 Bft) 95,74 %
03.04.2020 01:30 7,8 C 7,2 C 6,1 C 79 % 1011,9 hPa 0,0 l/m 0 min 0 min 0 W/m 25,7 km/h (4 Bft) 95,65 %
03.04.2020 01:32 7,8 C 7,2 C 6,1 C 79 % 1011,9 hPa 0,0 l/m 0 min 0 min 0 W/m 16,1 km/h (3 Bft) 95,74 %
03.04.2020 01:34 7,8 C 7,2 C 6,1 C 79 % 1011,8 hPa 0,0 l/m 0 min 0 min 0 W/m 19,3 km/h (3 Bft) 97,87 %
03.04.2020 01:36 7,8 C 7,2 C 6,1 C 79 % 1011,8 hPa 0,0 l/m 0 min 0 min 0 W/m 12,9 km/h (3 Bft) 93,62 %
03.04.2020 01:38 7,8 C 7,2 C 6,7 C 79 % 1011,8 hPa 0,0 l/m 0 min 0 min 0 W/m 9,7 km/h (2 Bft) 97,87 %
03.04.2020 01:40 7,8 C 7,2 C 6,7 C 79 % 1011,8 hPa 0,0 l/m 0 min 0 min 0 W/m 9,7 km/h (2 Bft) 97,87 %
03.04.2020 01:42 7,8 C 7,2 C 6,7 C 79 % 1011,8 hPa 0,0 l/m 0 min 0 min 0 W/m 3,2 km/h (1 Bft) 100,00 %
03.04.2020 01:44 7,8 C 7,2 C 6,7 C 79 % 1011,8 hPa 0,0 l/m 0 min 0 min 0 W/m 6,4 km/h (2 Bft) 95,74 %
03.04.2020 01:46 7,8 C 7,2 C 6,7 C 79 % 1011,7 hPa 0,0 l/m 0 min 0 min 0 W/m 12,9 km/h (3 Bft) 100,00 %
03.04.2020 01:48 7,8 C 7,2 C 6,7 C 79 % 1011,7 hPa 0,0 l/m 0 min 0 min 0 W/m 9,7 km/h (2 Bft) 97,87 %
03.04.2020 01:50 7,8 C 7,2 C 6,7 C 79 % 1011,7 hPa 0,0 l/m 0 min 0 min 0 W/m 12,9 km/h (3 Bft) 100,00 %
03.04.2020 01:52 7,8 C 7,2 C 6,7 C 80 % 1011,7 hPa 0,0 l/m 0 min 0 min 0 W/m 12,9 km/h (3 Bft) 100,00 %
03.04.2020 01:54 7,8 C 7,2 C 6,7 C 80 % 1011,7 hPa 0,0 l/m 0 min 0 min 0 W/m 6,4 km/h (2 Bft) 100,00 %
03.04.2020 01:56 7,8 C 7,2 C 6,7 C 80 % 1011,6 hPa 0,0 l/m 0 min 0 min 0 W/m 3,2 km/h (1 Bft) 100,00 %
03.04.2020 01:58 7,8 C 7,2 C 6,7 C 80 % 1011,6 hPa 0,0 l/m 0 min 0 min 0 W/m 6,4 km/h (2 Bft) 100,00 %
03.04.2020 02:00 7,8 C 7,2 C 6,7 C 80 % 1011,7 hPa 0,0 l/m 0 min 0 min 0 W/m 16,1 km/h (3 Bft) 100,00 %
03.04.2020 02:02 7,8 C 7,2 C 6,7 C 80 % 1011,6 hPa 0,0 l/m 0 min 0 min 0 W/m 9,7 km/h (2 Bft) 100,00 %
03.04.2020 02:04 7,8 C 7,2 C 6,7 C 80 % 1011,8 hPa 0,0 l/m 0 min 0 min 0 W/m 12,9 km/h (3 Bft) 97,83 %
03.04.2020 02:06 7,8 C 7,2 C 6,7 C 80 % 1011,8 hPa 0,0 l/m 0 min 0 min 0 W/m 6,4 km/h (2 Bft) 97,87 %
03.04.2020 02:08 7,8 C 7,2 C 6,7 C 80 % 1011,8 hPa 0,0 l/m 0 min 0 min 0 W/m 6,4 km/h (2 Bft) 57,45 %
03.04.2020 02:10 7,8 C 7,2 C 6,7 C 80 % 1011,8 hPa 0,0 l/m 0 min 0 min 0 W/m 19,3 km/h (3 Bft) 100,00 %
03.04.2020 02:12 7,9 C 7,2 C 6,7 C 80 % 1011,9 hPa 0,0 l/m 0 min 0 min 0 W/m 9,7 km/h (2 Bft) 97,87 %
03.04.2020 02:14 7,9 C 7,2 C 6,7 C 80 % 1012,0 hPa 0,0 l/m 0 min 0 min 0 W/m 16,1 km/h (3 Bft) 97,87 %
03.04.2020 02:16 7,9 C 7,2 C 6,7 C 80 % 1011,9 hPa 0,0 l/m 0 min 0 min 0 W/m 12,9 km/h (3 Bft) 97,83 %
03.04.2020 02:18 7,9 C 7,2 C 6,7 C 80 % 1011,9 hPa 0,0 l/m 0 min 0 min 0 W/m 12,9 km/h (3 Bft) 100,00 %
03.04.2020 02:20 7,9 C 7,2 C 6,7 C 80 % 1011,9 hPa 0,0 l/m 0 min 0 min 0 W/m 19,3 km/h (3 Bft) 100,00 %
03.04.2020 02:22 7,9 C 7,2 C 6,7 C 80 % 1011,8 hPa 0,0 l/m 0 min 0 min 0 W/m 12,9 km/h (3 Bft) 100,00 %
03.04.2020 02:24 7,9 C 7,2 C 6,7 C 80 % 1011,8 hPa 0,0 l/m 0 min 0 min 0 W/m 3,2 km/h (1 Bft) 100,00 %
03.04.2020 02:26 7,9 C 7,2 C 6,7 C 80 % 1011,8 hPa 0,0 l/m 0 min 0 min 0 W/m 3,2 km/h (1 Bft) 100,00 %
03.04.2020 02:28 7,9 C 7,2 C 6,7 C 80 % 1011,8 hPa 0,0 l/m 0 min 0 min 0 W/m 6,4 km/h (2 Bft) 100,00 %
03.04.2020 02:30 7,9 C 7,2 C 6,7 C 80 % 1011,9 hPa 0,0 l/m 0 min 0 min 0 W/m 6,4 km/h (2 Bft) 100,00 %
03.04.2020 02:32 7,9 C 7,2 C 6,7 C 81 % 1011,8 hPa 0,0 l/m 0 min 2 min 0 W/m 3,2 km/h (1 Bft) 100,00 %
03.04.2020 02:34 7,9 C 7,2 C 6,7 C 81 % 1011,8 hPa 0,0 l/m 0 min 0 min 0 W/m 6,4 km/h (2 Bft) 100,00 %
03.04.2020 02:36 7,9 C 6,7 C 6,1 C 81 % 1011,9 hPa 0,0 l/m 0 min 0 min 0 W/m 16,1 km/h (3 Bft) 100,00 %
03.04.2020 02:38 7,9 C 6,7 C 6,1 C 81 % 1011,8 hPa 0,0 l/m 0 min 0 min 0 W/m 6,4 km/h (2 Bft) 100,00 %
03.04.2020 02:40 7,9 C 6,7 C 6,1 C 81 % 1011,9 hPa 0,0 l/m 0 min 0 min 0 W/m 12,9 km/h (3 Bft) 100,00 %
03.04.2020 02:42 7,9 C 6,7 C 6,1 C 82 % 1011,9 hPa 0,0 l/m 0 min 0 min 0 W/m 16,1 km/h (3 Bft) 100,00 %
03.04.2020 02:44 7,9 C 6,7 C 5,6 C 82 % 1011,9 hPa 0,0 l/m 0 min 2 min 0 W/m 6,4 km/h (2 Bft) 100,00 %
03.04.2020 02:46 7,9 C 6,1 C 5,6 C 82 % 1011,9 hPa 0,0 l/m 0 min 2 min 0 W/m 6,4 km/h (2 Bft) 97,87 %
03.04.2020 02:48 7,9 C 6,1 C 5,6 C 82 % 1011,9 hPa 0,0 l/m 0 min 2 min 0 W/m 6,4 km/h (2 Bft) 100,00 %
03.04.2020 02:50 7,9 C 5,6 C 5,6 C 83 % 1011,8 hPa 0,0 l/m 0 min 0 min 0 W/m 12,9 km/h (3 Bft) 100,00 %
03.04.2020 02:52 7,9 C 6,1 C 5,0 C 83 % 1011,8 hPa 0,0 l/m 0 min 0 min 0 W/m 9,7 km/h (2 Bft) 97,83 %
03.04.2020 02:54 7,9 C 6,1 C 5,0 C 83 % 1011,9 hPa 0,0 l/m 0 min 0 min 0 W/m 3,2 km/h (1 Bft) 97,87 %
03.04.2020 02:56 7,8 C 6,1 C 5,0 C 83 % 1011,8 hPa 0,0 l/m 0 min 0 min 0 W/m 3,2 km/h (1 Bft) 97,87 %
03.04.2020 02:58 7,8 C 6,1 C 5,0 C 83 % 1011,8 hPa 0,0 l/m 0 min 0 min 0 W/m 3,2 km/h (1 Bft) 97,87 %
03.04.2020 03:00 7,8 C 6,1 C 5,6 C 83 % 1011,7 hPa 0,0 l/m 0 min 0 min 0 W/m 3,2 km/h (1 Bft) 95,74 %
03.04.2020 03:02 7,8 C 6,1 C 5,6 C 84 % 1011,8 hPa 0,0 l/m 0 min 0 min 0 W/m 9,7 km/h (2 Bft) 97,83 %
03.04.2020 03:04 7,7 C 6,1 C 5,6 C 84 % 1011,8 hPa 0,0 l/m 0 min 0 min 0 W/m 6,4 km/h (2 Bft) 97,87 %
03.04.2020 03:06 7,7 C 6,7 C 5,6 C 84 % 1011,8 hPa 0,0 l/m 0 min 0 min 0 W/m 6,4 km/h (2 Bft) 97,87 %
03.04.2020 03:08 7,7 C 6,7 C 5,6 C 84 % 1011,8 hPa 0,0 l/m 0 min 0 min 0 W/m 3,2 km/h (1 Bft) 97,87 %
03.04.2020 03:10 7,7 C 6,7 C 6,1 C 84 % 1011,7 hPa 0,0 l/m 0 min 0 min 0 W/m 3,2 km/h (1 Bft) 97,87 %
03.04.2020 03:12 7,7 C 6,7 C 6,1 C 84 % 1011,8 hPa 0,0 l/m 0 min 0 min 0 W/m 3,2 km/h (1 Bft) 95,74 %
03.04.2020 03:14 7,7 C 6,7 C 6,1 C 84 % 1011,8 hPa 0,0 l/m 0 min 0 min 0 W/m 16,1 km/h (3 Bft) 97,87 %
03.04.2020 03:16 7,7 C 7,2 C 6,1 C 84 % 1011,7 hPa 0,0 l/m 0 min 0 min 0 W/m 12,9 km/h (3 Bft) 95,65 %
03.04.2020 03:18 7,7 C 7,2 C 6,1 C 84 % 1011,7 hPa 0,0 l/m 0 min 0 min 0 W/m 3,2 km/h (1 Bft) 97,87 %
03.04.2020 03:20 7,7 C 7,2 C 6,1 C 84 % 1011,8 hPa 0,0 l/m 0 min 0 min 0 W/m 12,9 km/h (3 Bft) 97,87 %
03.04.2020 03:22 7,7 C 7,2 C 6,1 C 84 % 1011,9 hPa 0,0 l/m 0 min 0 min 0 W/m 6,4 km/h (2 Bft) 97,87 %
03.04.2020 03:24 7,7 C 7,2 C 6,1 C 84 % 1011,8 hPa 0,0 l/m 0 min 0 min 0 W/m 3,2 km/h (1 Bft) 97,87 %
03.04.2020 03:26 7,7 C 7,2 C 6,7 C 84 % 1011,8 hPa 0,0 l/m 0 min 0 min 0 W/m 12,9 km/h (3 Bft) 95,65 %
03.04.2020 03:28 7,7 C 7,2 C 6,7 C 84 % 1011,9 hPa 0,0 l/m 0 min 0 min 0 W/m 6,4 km/h (2 Bft) 95,74 %
03.04.2020 03:30 7,7 C 7,2 C 6,7 C 84 % 1011,9 hPa 0,0 l/m 0 min 0 min 0 W/m 3,2 km/h (1 Bft) 95,74 %
03.04.2020 03:32 7,7 C 7,2 C 6,7 C 84 % 1011,8 hPa 0,0 l/m 0 min 0 min 0 W/m 6,4 km/h (2 Bft) 95,74 %
03.04.2020 03:34 7,7 C 7,2 C 6,7 C 84 % 1011,9 hPa 0,0 l/m 0 min 0 min 0 W/m 6,4 km/h (2 Bft) 95,74 %
03.04.2020 03:36 7,7 C 7,2 C 6,7 C 84 % 1011,9 hPa 0,0 l/m 0 min 0 min 0 W/m 12,9 km/h (3 Bft) 91,49 %
03.04.2020 03:38 7,7 C 7,2 C 6,7 C 84 % 1011,9 hPa 0,0 l/m 0 min 0 min 0 W/m 3,2 km/h (1 Bft) 95,65 %
03.04.2020 03:40 7,7 C 7,2 C 6,7 C 84 % 1011,9 hPa 0,0 l/m 0 min 0 min 0 W/m 6,4 km/h (2 Bft) 97,87 %
03.04.2020 03:42 7,7 C 7,2 C 6,7 C 84 % 1011,9 hPa 0,0 l/m 0 min 0 min 0 W/m 9,7 km/h (2 Bft) 100,00 %
03.04.2020 03:44 7,7 C 7,2 C 6,7 C 84 % 1011,9 hPa 0,0 l/m 0 min 0 min 0 W/m 6,4 km/h (2 Bft) 97,87 %
03.04.2020 03:46 7,7 C 7,2 C 6,7 C 84 % 1011,9 hPa 0,0 l/m 0 min 0 min 0 W/m 6,4 km/h (2 Bft) 93,62 %
03.04.2020 03:48 7,7 C 6,7 C 6,7 C 84 % 1011,9 hPa 0,0 l/m 0 min 0 min 0 W/m 12,9 km/h (3 Bft) 97,87 %
03.04.2020 03:50 7,7 C 6,7 C 6,1 C 84 % 1012,0 hPa 0,0 l/m 0 min 0 min 0 W/m 3,2 km/h (1 Bft) 93,48 %
03.04.2020 03:52 7,7 C 6,7 C 6,1 C 84 % 1011,9 hPa 0,0 l/m 0 min 0 min 0 W/m 3,2 km/h (1 Bft) 93,62 %
03.04.2020 03:54 7,7 C 6,7 C 6,1 C 84 % 1011,9 hPa 0,0 l/m 0 min 0 min 0 W/m 0,0 km/h (0 Bft) 95,74 %
03.04.2020 03:56 7,7 C 6,7 C 6,1 C 84 % 1011,9 hPa 0,0 l/m 0 min 0 min 0 W/m 12,9 km/h (3 Bft) 95,74 %
03.04.2020 03:58 7,7 C 6,7 C 6,1 C 84 % 1012,0 hPa 0,0 l/m 0 min 0 min 0 W/m 6,4 km/h (2 Bft) 95,74 %
03.04.2020 04:00 7,7 C 6,7 C 6,1 C 85 % 1012,0 hPa 0,0 l/m 0 min 0 min 0 W/m 3,2 km/h (1 Bft) 95,74 %
03.04.2020 04:05 7,7 C 6,7 C 6,1 C 85 % 1012,1 hPa 0,0 l/m 0 min 0 min 0 W/m 6,4 km/h (2 Bft) 95,71 %
03.04.2020 04:06 7,7 C 6,7 C 6,1 C 85 % 1012,1 hPa 0,0 l/m 0 min 0 min 0 W/m 3,2 km/h (1 Bft) 83,33 %
03.04.2020 04:08 7,7 C 6,7 C 6,1 C 85 % 1012,1 hPa 0,0 l/m 0 min 0 min 0 W/m 0,0 km/h (0 Bft) 95,74 %
03.04.2020 04:10 7,7 C 6,7 C 6,1 C 85 % 1012,1 hPa 0,0 l/m 0 min 0 min 0 W/m 6,4 km/h (2 Bft) 95,74 %
03.04.2020 04:12 7,7 C 6,7 C 6,1 C 85 % 1012,1 hPa 0,0 l/m 0 min 0 min 0 W/m 9,7 km/h (2 Bft) 93,62 %
03.04.2020 04:14 7,6 C 6,7 C 6,1 C 85 % 1012,1 hPa 0,0 l/m 0 min 0 min 0 W/m 3,2 km/h (1 Bft) 95,65 %
03.04.2020 04:16 7,6 C 6,7 C 6,1 C 85 % 1012,1 hPa 0,0 l/m 0 min 0 min 0 W/m 3,2 km/h (1 Bft) 95,74 %
03.04.2020 04:18 7,6 C 6,7 C 6,1 C 85 % 1012,2 hPa 0,0 l/m 0 min 0 min 0 W/m 0,0 km/h (0 Bft) 95,74 %
03.04.2020 04:20 7,6 C 6,7 C 6,1 C 85 % 1012,2 hPa 0,0 l/m 0 min 0 min 0 W/m 3,2 km/h (1 Bft) 95,74 %
03.04.2020 04:22 7,6 C 6,7 C 6,1 C 85 % 1012,2 hPa 0,0 l/m 0 min 0 min 0 W/m 12,9 km/h (3 Bft) 95,74 %
03.04.2020 04:24 7,6 C 6,7 C 6,1 C 85 % 1012,2 hPa 0,0 l/m 0 min 0 min 0 W/m 3,2 km/h (1 Bft) 93,48 %
03.04.2020 04:26 7,6 C 6,7 C 6,1 C 85 % 1012,2 hPa 0,0 l/m 0 min 0 min 0 W/m 3,2 km/h (1 Bft) 95,74 %
03.04.2020 04:28 7,6 C 6,7 C 6,1 C 85 % 1012,3 hPa 0,0 l/m 0 min 0 min 0 W/m 3,2 km/h (1 Bft) 95,74 %
03.04.2020 04:30 7,6 C 6,7 C 6,1 C 85 % 1012,3 hPa 0,0 l/m 0 min 0 min 0 W/m 9,7 km/h (2 Bft) 95,74 %
03.04.2020 04:32 7,6 C 6,7 C 6,1 C 85 % 1012,3 hPa 0,0 l/m 0 min 0 min 0 W/m 3,2 km/h (1 Bft) 93,62 %
03.04.2020 04:34 7,6 C 6,7 C 6,1 C 85 % 1012,4 hPa 0,0 l/m 0 min 0 min 0 W/m 0,0 km/h (0 Bft) 95,74 %
03.04.2020 04:36 7,6 C 6,7 C 6,1 C 86 % 1012,4 hPa 0,0 l/m 0 min 0 min 0 W/m 0,0 km/h (0 Bft) 97,83 %
03.04.2020 04:38 7,6 C 6,7 C 6,1 C 86 % 1012,3 hPa 0,0 l/m 0 min 0 min 0 W/m 3,2 km/h (1 Bft) 95,74 %
03.04.2020 04:40 7,5 C 6,7 C 6,1 C 86 % 1012,3 hPa 0,0 l/m 0 min 0 min 0 W/m 0,0 km/h (0 Bft) 97,87 %
03.04.2020 04:42 7,5 C 6,7 C 6,1 C 86 % 1012,3 hPa 0,0 l/m 0 min 0 min 0 W/m 0,0 km/h (0 Bft) 97,87 %
03.04.2020 04:44 7,5 C 6,7 C 6,1 C 86 % 1012,3 hPa 0,0 l/m 0 min 0 min 0 W/m 6,4 km/h (2 Bft) 95,74 %
03.04.2020 04:46 7,5 C 6,7 C 6,1 C 86 % 1012,3 hPa 0,0 l/m 0 min 0 min 0 W/m 3,2 km/h (1 Bft) 95,74 %
03.04.2020 04:48 7,5 C 6,7 C 6,1 C 86 % 1012,3 hPa 0,0 l/m 0 min 0 min 0 W/m 3,2 km/h (1 Bft) 97,83 %
03.04.2020 04:50 7,5 C 6,7 C 6,1 C 86 % 1012,4 hPa 0,0 l/m 0 min 0 min 0 W/m 9,7 km/h (2 Bft) 97,87 %
03.04.2020 04:52 7,5 C 6,7 C 6,1 C 86 % 1012,4 hPa 0,0 l/m 0 min 0 min 0 W/m 3,2 km/h (1 Bft) 100,00 %
03.04.2020 04:54 7,5 C 6,7 C 6,1 C 86 % 1012,3 hPa 0,0 l/m 0 min 0 min 0 W/m 3,2 km/h (1 Bft) 95,74 %
03.04.2020 04:56 7,5 C 6,7 C 6,1 C 86 % 1012,3 hPa 0,0 l/m 0 min 0 min 0 W/m 6,4 km/h (2 Bft) 100,00 %
03.04.2020 04:58 7,5 C 6,7 C 6,1 C 87 % 1012,3 hPa 0,0 l/m 0 min 0 min 0 W/m 3,2 km/h (1 Bft) 100,00 %
03.04.2020 05:00 7,5 C 6,7 C 6,1 C 87 % 1012,3 hPa 0,0 l/m 0 min 0 min 0 W/m 3,2 km/h (1 Bft) 97,83 %
03.04.2020 05:02 7,4 C 6,7 C 6,1 C 87 % 1012,3 hPa 0,0 l/m 0 min 0 min 0 W/m 9,7 km/h (2 Bft) 97,87 %
03.04.2020 05:04 7,4 C 6,7 C 6,1 C 87 % 1012,3 hPa 0,0 l/m 0 min 0 min 0 W/m 3,2 km/h (1 Bft) 97,87 %
03.04.2020 05:06 7,4 C 6,7 C 6,1 C 87 % 1012,3 hPa 0,0 l/m 0 min 0 min 0 W/m 3,2 km/h (1 Bft) 100,00 %
03.04.2020 05:08 7,4 C 6,7 C 6,1 C 87 % 1012,3 hPa 0,0 l/m 0 min 0 min 0 W/m 0,0 km/h (0 Bft) 100,00 %
03.04.2020 05:10 7,4 C 6,7 C 6,1 C 87 % 1012,4 hPa 0,0 l/m 0 min 0 min 0 W/m 3,2 km/h (1 Bft) 100,00 %
03.04.2020 05:12 7,4 C 6,7 C 6,1 C 87 % 1012,3 hPa 0,0 l/m 0 min 0 min 0 W/m 3,2 km/h (1 Bft) 97,87 %
03.04.2020 05:14 7,4 C 6,7 C 6,1 C 87 % 1012,4 hPa 0,0 l/m 0 min 0 min 0 W/m 3,2 km/h (1 Bft) 100,00 %
03.04.2020 05:16 7,4 C 6,7 C 6,1 C 87 % 1012,4 hPa 0,0 l/m 0 min 0 min 0 W/m 3,2 km/h (1 Bft) 95,74 %
03.04.2020 05:18 7,4 C 6,7 C 6,1 C 87 % 1012,4 hPa 0,0 l/m 0 min 0 min 0 W/m 3,2 km/h (1 Bft) 100,00 %
03.04.2020 05:20 7,4 C 6,7 C 6,1 C 87 % 1012,4 hPa 0,0 l/m 0 min 0 min 0 W/m 0,0 km/h (0 Bft) 100,00 %
03.04.2020 05:22 7,4 C 6,7 C 6,1 C 87 % 1012,5 hPa 0,0 l/m 0 min 0 min 0 W/m 3,2 km/h (1 Bft) 95,65 %
03.04.2020 05:24 7,4 C 6,7 C 6,1 C 87 % 1012,5 hPa 0,0 l/m 0 min 0 min 0 W/m 9,7 km/h (2 Bft) 100,00 %
03.04.2020 05:26 7,4 C 6,7 C 6,1 C 87 % 1012,5 hPa 0,0 l/m 0 min 0 min 0 W/m 3,2 km/h (1 Bft) 100,00 %
03.04.2020 05:28 7,4 C 6,7 C 6,1 C 87 % 1012,5 hPa 0,0 l/m 0 min 0 min 0 W/m 0,0 km/h (0 Bft) 97,87 %
03.04.2020 05:30 7,4 C 6,7 C 6,1 C 87 % 1012,5 hPa 0,0 l/m 0 min 0 min 0 W/m 3,2 km/h (1 Bft) 95,74 %
03.04.2020 05:32 7,4 C 6,7 C 6,1 C 88 % 1012,5 hPa 0,0 l/m 0 min 0 min 0 W/m 3,2 km/h (1 Bft) 97,87 %
03.04.2020 05:34 7,4 C 6,7 C 6,1 C 88 % 1012,5 hPa 0,0 l/m 0 min 0 min 0 W/m 3,2 km/h (1 Bft) 97,83 %
03.04.2020 05:36 7,4 C 6,7 C 6,1 C 88 % 1012,5 hPa 0,0 l/m 0 min 0 min 0 W/m 0,0 km/h (0 Bft) 95,74 %
03.04.2020 05:38 7,3 C 6,7 C 6,1 C 88 % 1012,5 hPa 0,0 l/m 0 min 0 min 0 W/m 0,0 km/h (0 Bft) 95,74 %
03.04.2020 05:40 7,3 C 6,7 C 6,1 C 88 % 1012,6 hPa 0,0 l/m 0 min 0 min 0 W/m 3,2 km/h (1 Bft) 97,87 %
03.04.2020 05:42 7,3 C 6,7 C 6,1 C 88 % 1012,5 hPa 0,0 l/m 0 min 0 min 0 W/m 6,4 km/h (2 Bft) 97,87 %
03.04.2020 05:44 7,3 C 6,7 C 6,1 C 88 % 1012,6 hPa 0,0 l/m 0 min 0 min 0 W/m 0,0 km/h (0 Bft) 97,87 %
03.04.2020 05:46 7,3 C 6,7 C 6,1 C 88 % 1012,6 hPa 0,0 l/m 0 min 0 min 0 W/m 3,2 km/h (1 Bft) 97,83 %
03.04.2020 05:48 7,3 C 6,7 C 6,1 C 88 % 1012,5 hPa 0,0 l/m 0 min 0 min 0 W/m 3,2 km/h (1 Bft) 97,87 %
03.04.2020 05:50 7,3 C 6,7 C 6,1 C 88 % 1012,6 hPa 0,0 l/m 0 min 0 min 0 W/m 0,0 km/h (0 Bft) 97,87 %
03.04.2020 05:52 7,3 C 6,7 C 6,1 C 88 % 1012,6 hPa 0,0 l/m 0 min 0 min 0 W/m 0,0 km/h (0 Bft) 97,87 %
03.04.2020 05:54 7,3 C 6,7 C 6,1 C 88 % 1012,6 hPa 0,0 l/m 0 min 0 min 0 W/m 3,2 km/h (1 Bft) 97,87 %
03.04.2020 05:56 7,3 C 6,7 C 6,1 C 88 % 1012,7 hPa 0,0 l/m 0 min 0 min 0 W/m 3,2 km/h (1 Bft) 97,87 %
03.04.2020 05:58 7,3 C 6,7 C 6,1 C 88 % 1012,7 hPa 0,0 l/m 0 min 0 min 0 W/m 0,0 km/h (0 Bft) 97,83 %
03.04.2020 06:00 7,3 C 6,7 C 6,1 C 88 % 1012,7 hPa 0,0 l/m 0 min 0 min 0 W/m 3,2 km/h (1 Bft) 95,74 %
03.04.2020 06:02 7,3 C 6,7 C 6,1 C 88 % 1012,7 hPa 0,0 l/m 0 min 0 min 0 W/m 3,2 km/h (1 Bft) 95,74 %
03.04.2020 06:04 7,3 C 6,7 C 6,1 C 88 % 1012,7 hPa 0,0 l/m 0 min 0 min 0 W/m 3,2 km/h (1 Bft) 97,87 %
03.04.2020 06:08 7,3 C 6,7 C 6,1 C 88 % 1012,8 hPa 0,0 l/m 0 min 0 min 0 W/m 6,4 km/h (2 Bft) 98,94 %
03.04.2020 06:10 7,3 C 6,7 C 6,1 C 88 % 1012,8 hPa 0,0 l/m 0 min 0 min 0 W/m 0,0 km/h (0 Bft) 100,00 %
03.04.2020 06:12 7,3 C 6,7 C 6,1 C 88 % 1012,8 hPa 0,0 l/m 0 min 0 min 0 W/m 0,0 km/h (0 Bft) 100,00 %
03.04.2020 06:14 7,3 C 6,7 C 6,1 C 88 % 1012,8 hPa 0,0 l/m 0 min 0 min 0 W/m 0,0 km/h (0 Bft) 100,00 %
03.04.2020 06:16 7,3 C 6,7 C 6,1 C 88 % 1012,8 hPa 0,0 l/m 0 min 0 min 0 W/m 3,2 km/h (1 Bft) 100,00 %
03.04.2020 06:18 7,3 C 6,7 C 6,1 C 88 % 1012,9 hPa 0,0 l/m 0 min 0 min 0 W/m 3,2 km/h (1 Bft) 100,00 %
03.04.2020 06:20 7,3 C 6,7 C 6,1 C 89 % 1012,9 hPa 0,0 l/m 0 min 0 min 0 W/m 6,4 km/h (2 Bft) 100,00 %
03.04.2020 06:22 7,3 C 6,7 C 6,1 C 89 % 1012,9 hPa 0,0 l/m 0 min 0 min 0 W/m 6,4 km/h (2 Bft) 53,49 %
03.04.2020 06:24 7,3 C 6,7 C 6,1 C 89 % 1012,9 hPa 0,0 l/m 0 min 0 min 0 W/m 3,2 km/h (1 Bft) 100,00 %
03.04.2020 06:26 7,2 C 6,7 C 6,1 C 89 % 1012,9 hPa 0,0 l/m 0 min 0 min 0 W/m 6,4 km/h (2 Bft) 100,00 %
03.04.2020 06:28 7,2 C 6,7 C 6,1 C 89 % 1012,9 hPa 0,0 l/m 0 min 0 min 0 W/m 0,0 km/h (0 Bft) 100,00 %
03.04.2020 06:30 7,2 C 6,7 C 6,1 C 89 % 1012,9 hPa 0,0 l/m 0 min 0 min 0 W/m 3,2 km/h (1 Bft) 100,00 %
03.04.2020 06:32 7,3 C 6,7 C 6,1 C 89 % 1012,9 hPa 0,0 l/m 0 min 0 min 0 W/m 6,4 km/h (2 Bft) 97,87 %
03.04.2020 06:34 7,2 C 6,7 C 6,1 C 89 % 1012,9 hPa 0,0 l/m 0 min 0 min 0 W/m 3,2 km/h (1 Bft) 100,00 %
03.04.2020 06:36 7,2 C 6,7 C 6,1 C 89 % 1013,0 hPa 0,0 l/m 0 min 0 min 0 W/m 6,4 km/h (2 Bft) 100,00 %
03.04.2020 06:38 7,2 C 6,7 C 6,1 C 89 % 1013,0 hPa 0,0 l/m 0 min 0 min 0 W/m 12,9 km/h (3 Bft) 100,00 %
03.04.2020 06:40 7,2 C 6,7 C 6,1 C 89 % 1013,0 hPa 0,0 l/m 0 min 0 min 0 W/m 6,4 km/h (2 Bft) 100,00 %
03.04.2020 06:42 7,2 C 6,7 C 6,1 C 89 % 1013,0 hPa 0,0 l/m 0 min 0 min 0 W/m 0,0 km/h (0 Bft) 100,00 %
03.04.2020 06:44 7,2 C 6,7 C 6,1 C 89 % 1013,0 hPa 0,0 l/m 0 min 0 min 0 W/m 16,1 km/h (3 Bft) 97,83 %
03.04.2020 06:46 7,2 C 6,7 C 6,1 C 89 % 1013,1 hPa 0,0 l/m 0 min 0 min 0 W/m 6,4 km/h (2 Bft) 95,74 %
03.04.2020 06:48 7,2 C 6,7 C 6,1 C 89 % 1013,1 hPa 0,0 l/m 0 min 0 min 0 W/m 3,2 km/h (1 Bft) 93,62 %
03.04.2020 06:50 7,2 C 6,7 C 6,1 C 89 % 1013,1 hPa 0,0 l/m 0 min 0 min 0 W/m 3,2 km/h (1 Bft) 97,87 %
03.04.2020 06:52 7,2 C 6,7 C 6,1 C 89 % 1013,1 hPa 0,0 l/m 0 min 0 min 0 W/m 6,4 km/h (2 Bft) 97,87 %
03.04.2020 06:54 7,2 C 6,7 C 6,1 C 89 % 1013,2 hPa 0,0 l/m 0 min 0 min 0 W/m 3,2 km/h (1 Bft) 97,87 %
03.04.2020 06:56 7,2 C 6,7 C 6,1 C 89 % 1013,2 hPa 0,0 l/m 0 min 0 min 0 W/m 3,2 km/h (1 Bft) 97,83 %
03.04.2020 06:58 7,2 C 6,7 C 6,1 C 89 % 1013,2 hPa 0,0 l/m 0 min 0 min 0 W/m 3,2 km/h (1 Bft) 97,87 %
03.04.2020 07:00 7,2 C 6,7 C 6,1 C 89 % 1013,2 hPa 0,0 l/m 0 min 0 min 0 W/m 9,7 km/h (2 Bft) 95,74 %
03.04.2020 07:02 7,2 C 6,7 C 6,1 C 89 % 1013,3 hPa 0,0 l/m 0 min 0 min 0 W/m 9,7 km/h (2 Bft) 97,87 %
03.04.2020 07:04 7,2 C 6,7 C 6,1 C 89 % 1013,3 hPa 0,0 l/m 0 min 0 min 0 W/m 19,3 km/h (3 Bft) 97,87 %
03.04.2020 07:06 7,2 C 6,7 C 6,1 C 89 % 1013,3 hPa 0,0 l/m 0 min 0 min 0 W/m 3,2 km/h (1 Bft) 97,87 %
03.04.2020 07:08 7,2 C 6,7 C 6,1 C 89 % 1013,3 hPa 0,0 l/m 0 min 0 min 0 W/m 0,0 km/h (0 Bft) 97,83 %
03.04.2020 07:10 7,2 C 6,7 C 6,1 C 89 % 1013,4 hPa 0,0 l/m 0 min 0 min 0 W/m 0,0 km/h (0 Bft) 97,87 %
03.04.2020 07:12 7,2 C 6,7 C 6,1 C 89 % 1013,4 hPa 0,0 l/m 0 min 0 min 0 W/m 0,0 km/h (0 Bft) 93,62 %
03.04.2020 07:14 7,2 C 6,7 C 6,1 C 89 % 1013,4 hPa 0,0 l/m 0 min 0 min 0 W/m 3,2 km/h (1 Bft) 97,87 %
03.04.2020 07:16 7,2 C 6,7 C 6,1 C 89 % 1013,5 hPa 0,0 l/m 0 min 0 min 0 W/m 0,0 km/h (0 Bft) 97,87 %
03.04.2020 07:18 7,2 C 6,7 C 6,1 C 89 % 1013,5 hPa 0,0 l/m 0 min 0 min 0 W/m 0,0 km/h (0 Bft) 95,74 %
03.04.2020 07:20 7,2 C 6,7 C 6,1 C 89 % 1013,5 hPa 0,0 l/m 0 min 0 min 0 W/m 0,0 km/h (0 Bft) 97,83 %
03.04.2020 07:22 7,2 C 6,7 C 6,1 C 90 % 1013,5 hPa 0,0 l/m 0 min 0 min 0 W/m 0,0 km/h (0 Bft) 97,87 %
03.04.2020 07:24 7,2 C 6,7 C 6,1 C 90 % 1013,5 hPa 0,0 l/m 0 min 0 min 0 W/m 0,0 km/h (0 Bft) 97,87 %
03.04.2020 07:26 7,2 C 6,7 C 6,1 C 90 % 1013,5 hPa 0,0 l/m 0 min 0 min 0 W/m 0,0 km/h (0 Bft) 97,87 %
03.04.2020 07:28 7,2 C 6,7 C 6,1 C 90 % 1013,6 hPa 0,0 l/m 0 min 0 min 3 W/m 0,0 km/h (0 Bft) 93,75 %
03.04.2020 07:30 7,2 C 6,7 C 6,1 C 90 % 1013,6 hPa 0,0 l/m 0 min 0 min 5 W/m 6,4 km/h (2 Bft) 95,74 %
03.04.2020 07:32 7,2 C 6,7 C 6,1 C 90 % 1013,7 hPa 0,0 l/m 0 min 0 min 5 W/m 0,0 km/h (0 Bft) 95,74 %
03.04.2020 07:34 7,2 C 6,7 C 6,1 C 90 % 1013,6 hPa 0,0 l/m 0 min 0 min 7 W/m 3,2 km/h (1 Bft) 95,74 %
03.04.2020 07:36 7,2 C 6,7 C 6,1 C 90 % 1013,7 hPa 0,0 l/m 0 min 0 min 7 W/m 3,2 km/h (1 Bft) 97,87 %
03.04.2020 07:38 7,2 C 6,7 C 6,1 C 90 % 1013,7 hPa 0,0 l/m 0 min 0 min 7 W/m 9,7 km/h (2 Bft) 95,74 %
03.04.2020 07:40 7,2 C 6,7 C 6,1 C 90 % 1013,9 hPa 0,0 l/m 0 min 0 min 8 W/m 0,0 km/h (0 Bft) 95,65 %
03.04.2020 07:42 7,2 C 6,7 C 6,1 C 90 % 1013,9 hPa 0,0 l/m 0 min 0 min 9 W/m 3,2 km/h (1 Bft) 97,87 %
03.04.2020 07:44 7,2 C 6,7 C 6,1 C 90 % 1013,9 hPa 0,0 l/m 0 min 0 min 9 W/m 0,0 km/h (0 Bft) 97,87 %
03.04.2020 07:46 7,2 C 6,7 C 6,1 C 90 % 1013,9 hPa 0,0 l/m 0 min 0 min 11 W/m 0,0 km/h (0 Bft) 93,62 %
03.04.2020 07:48 7,2 C 6,7 C 6,1 C 90 % 1013,9 hPa 0,0 l/m 0 min 0 min 8 W/m 0,0 km/h (0 Bft) 91,49 %
03.04.2020 07:50 7,2 C 6,7 C 6,1 C 90 % 1013,9 hPa 0,0 l/m 0 min 0 min 9 W/m 6,4 km/h (2 Bft) 97,83 %
03.04.2020 07:52 7,2 C 6,7 C 6,1 C 90 % 1013,9 hPa 0,0 l/m 0 min 0 min 9 W/m 0,0 km/h (0 Bft) 95,74 %
03.04.2020 07:54 7,2 C 6,7 C 6,1 C 90 % 1014,0 hPa 0,0 l/m 0 min 0 min 9 W/m 6,4 km/h (2 Bft) 95,74 %
03.04.2020 07:56 7,2 C 6,7 C 6,1 C 90 % 1014,0 hPa 0,0 l/m 0 min 0 min 10 W/m 3,2 km/h (1 Bft) 95,74 %
03.04.2020 07:58 7,2 C 6,7 C 6,1 C 90 % 1014,0 hPa 0,0 l/m 0 min 0 min 12 W/m 6,4 km/h (2 Bft) 93,62 %
03.04.2020 08:00 7,2 C 6,7 C 6,1 C 90 % 1014,0 hPa 0,0 l/m 0 min 0 min 13 W/m 0,0 km/h (0 Bft) 95,74 %
03.04.2020 08:02 7,2 C 6,7 C 6,1 C 90 % 1014,0 hPa 0,0 l/m 0 min 0 min 14 W/m 9,7 km/h (2 Bft) 95,65 %
03.04.2020 08:04 7,2 C 6,7 C 6,1 C 90 % 1014,0 hPa 0,0 l/m 0 min 0 min 14 W/m 3,2 km/h (1 Bft) 93,62 %
03.04.2020 08:06 7,2 C 6,7 C 6,1 C 90 % 1014,1 hPa 0,0 l/m 0 min 0 min 16 W/m 3,2 km/h (1 Bft) 93,62 %
03.04.2020 08:08 7,2 C 6,7 C 6,1 C 90 % 1014,0 hPa 0,0 l/m 0 min 0 min 18 W/m 6,4 km/h (2 Bft) 95,74 %
03.04.2020 08:10 7,2 C 6,7 C 6,1 C 90 % 1014,0 hPa 0,0 l/m 0 min 0 min 19 W/m 6,4 km/h (2 Bft) 95,74 %
03.04.2020 08:12 7,2 C 6,7 C 6,1 C 90 % 1014,1 hPa 0,0 l/m 0 min 0 min 21 W/m 6,4 km/h (2 Bft) 95,74 %
03.04.2020 08:14 7,2 C 6,7 C 6,1 C 90 % 1014,1 hPa 0,0 l/m 0 min 0 min 21 W/m 0,0 km/h (0 Bft) 95,65 %
03.04.2020 08:16 7,2 C 6,7 C 6,1 C 90 % 1014,1 hPa 0,0 l/m 0 min 0 min 21 W/m 0,0 km/h (0 Bft) 93,62 %
03.04.2020 08:18 7,2 C 6,7 C 6,1 C 90 % 1014,2 hPa 0,0 l/m 0 min 0 min 21 W/m 0,0 km/h (0 Bft) 95,74 %
03.04.2020 08:20 7,2 C 6,7 C 6,1 C 90 % 1014,1 hPa 0,0 l/m 0 min 0 min 22 W/m 6,4 km/h (2 Bft) 95,74 %
03.04.2020 08:22 7,2 C 6,7 C 6,1 C 90 % 1014,1 hPa 0,0 l/m 0 min 0 min 25 W/m 9,7 km/h (2 Bft) 95,74 %
03.04.2020 08:24 7,3 C 6,7 C 6,1 C 90 % 1014,1 hPa 0,0 l/m 0 min 0 min 28 W/m 0,0 km/h (0 Bft) 95,74 %
03.04.2020 08:26 7,3 C 6,7 C 6,1 C 90 % 1014,1 hPa 0,0 l/m 0 min 0 min 30 W/m 0,0 km/h (0 Bft) 93,48 %
03.04.2020 08:28 7,3 C 6,7 C 6,7 C 90 % 1014,2 hPa 0,0 l/m 0 min 0 min 33 W/m 3,2 km/h (1 Bft) 95,74 %
03.04.2020 08:30 7,3 C 6,7 C 6,7 C 90 % 1014,2 hPa 0,0 l/m 0 min 0 min 37 W/m 6,4 km/h (2 Bft) 95,74 %
03.04.2020 08:32 7,3 C 6,7 C 6,7 C 90 % 1014,2 hPa 0,0 l/m 0 min 0 min 40 W/m 3,2 km/h (1 Bft) 97,87 %
03.04.2020 08:34 7,3 C 6,7 C 6,7 C 90 % 1014,2 hPa 0,0 l/m 0 min 0 min 42 W/m 9,7 km/h (2 Bft) 95,74 %
03.04.2020 08:36 7,3 C 7,2 C 6,7 C 90 % 1014,3 hPa 0,0 l/m 0 min 0 min 46 W/m 3,2 km/h (1 Bft) 97,83 %
03.04.2020 08:38 7,3 C 7,2 C 6,7 C 90 % 1014,3 hPa 0,0 l/m 0 min 0 min 48 W/m 6,4 km/h (2 Bft) 100,00 %
03.04.2020 08:40 7,3 C 7,2 C 6,7 C 90 % 1014,3 hPa 0,0 l/m 0 min 0 min 53 W/m 3,2 km/h (1 Bft) 100,00 %
03.04.2020 08:42 7,3 C 7,2 C 6,7 C 90 % 1014,3 hPa 0,0 l/m 0 min 0 min 56 W/m 3,2 km/h (1 Bft) 100,00 %
03.04.2020 08:44 7,3 C 7,2 C 6,7 C 90 % 1014,3 hPa 0,0 l/m 0 min 0 min 58 W/m 3,2 km/h (1 Bft) 97,87 %
03.04.2020 08:46 7,4 C 7,2 C 6,7 C 90 % 1014,3 hPa 0,0 l/m 0 min 0 min 63 W/m 6,4 km/h (2 Bft) 97,87 %
03.04.2020 08:48 7,4 C 7,2 C 6,7 C 90 % 1014,4 hPa 0,0 l/m 0 min 0 min 66 W/m 3,2 km/h (1 Bft) 100,00 %
03.04.2020 08:50 7,4 C 7,2 C 6,7 C 90 % 1014,4 hPa 0,0 l/m 0 min 0 min 67 W/m 0,0 km/h (0 Bft) 100,00 %
03.04.2020 08:52 7,4 C 7,2 C 6,7 C 90 % 1014,4 hPa 0,0 l/m 0 min 0 min 69 W/m 0,0 km/h (0 Bft) 100,00 %
03.04.2020 08:54 7,4 C 7,2 C 6,7 C 90 % 1014,4 hPa 0,0 l/m 0 min 0 min 71 W/m 0,0 km/h (0 Bft) 97,87 %
03.04.2020 08:56 7,5 C 7,2 C 6,7 C 90 % 1014,5 hPa 0,0 l/m 0 min 0 min 74 W/m 6,4 km/h (2 Bft) 100,00 %
03.04.2020 08:58 7,5 C 7,8 C 7,2 C 90 % 1014,5 hPa 0,0 l/m 0 min 0 min 75 W/m 3,2 km/h (1 Bft) 100,00 %
03.04.2020 09:00 7,6 C 7,8 C 7,2 C 90 % 1014,5 hPa 0,0 l/m 0 min 0 min 75 W/m 0,0 km/h (0 Bft) 100,00 %
03.04.2020 09:02 7,6 C 7,8 C 7,2 C 89 % 1014,5 hPa 0,0 l/m 0 min 0 min 76 W/m 6,4 km/h (2 Bft) 95,74 %
03.04.2020 09:04 7,6 C 7,8 C 7,2 C 89 % 1014,5 hPa 0,0 l/m 0 min 0 min 82 W/m 3,2 km/h (1 Bft) 100,00 %
03.04.2020 09:06 7,6 C 7,8 C 7,2 C 89 % 1014,5 hPa 0,0 l/m 0 min 0 min 85 W/m 3,2 km/h (1 Bft) 100,00 %
03.04.2020 09:08 7,6 C 7,8 C 7,2 C 89 % 1014,6 hPa 0,0 l/m 0 min 0 min 89 W/m 6,4 km/h (2 Bft) 100,00 %
03.04.2020 09:10 7,6 C 7,8 C 7,2 C 89 % 1014,6 hPa 0,0 l/m 0 min 0 min 90 W/m 3,2 km/h (1 Bft) 100,00 %
03.04.2020 09:12 7,7 C 7,8 C 7,2 C 89 % 1014,6 hPa 0,0 l/m 0 min 0 min 90 W/m 3,2 km/h (1 Bft) 100,00 %
03.04.2020 09:14 7,7 C 7,8 C 7,2 C 89 % 1014,6 hPa 0,0 l/m 0 min 0 min 90 W/m 3,2 km/h (1 Bft) 100,00 %
03.04.2020 09:16 7,7 C 7,8 C 7,2 C 89 % 1014,6 hPa 0,0 l/m 0 min 0 min 91 W/m 3,2 km/h (1 Bft) 100,00 %
03.04.2020 09:18 7,7 C 7,8 C 7,2 C 89 % 1014,6 hPa 0,0 l/m 0 min 0 min 91 W/m 3,2 km/h (1 Bft) 97,87 %
03.04.2020 09:20 7,8 C 7,8 C 7,2 C 89 % 1014,7 hPa 0,0 l/m 0 min 0 min 91 W/m 12,9 km/h (3 Bft) 100,00 %
03.04.2020 09:22 7,8 C 7,8 C 7,2 C 89 % 1014,7 hPa 0,0 l/m 0 min 0 min 95 W/m 6,4 km/h (2 Bft) 100,00 %
03.04.2020 09:24 7,8 C 7,8 C 7,2 C 89 % 1014,6 hPa 0,0 l/m 0 min 0 min 97 W/m 0,0 km/h (0 Bft) 97,87 %
03.04.2020 09:26 7,8 C 7,8 C 7,2 C 89 % 1014,7 hPa 0,0 l/m 0 min 0 min 103 W/m 3,2 km/h (1 Bft) 100,00 %
03.04.2020 09:28 7,9 C 8,3 C 7,8 C 89 % 1014,7 hPa 0,0 l/m 0 min 0 min 116 W/m 3,2 km/h (1 Bft) 100,00 %
03.04.2020 09:30 7,9 C 7,8 C 7,2 C 89 % 1014,7 hPa 0,0 l/m 0 min 0 min 119 W/m 6,4 km/h (2 Bft) 100,00 %
03.04.2020 09:32 7,9 C 8,3 C 7,8 C 88 % 1014,7 hPa 0,0 l/m 0 min 0 min 122 W/m 3,2 km/h (1 Bft) 100,00 %
03.04.2020 09:34 7,9 C 8,3 C 7,8 C 88 % 1014,8 hPa 0,0 l/m 0 min 0 min 119 W/m 3,2 km/h (1 Bft) 100,00 %
03.04.2020 09:36 8,0 C 8,3 C 7,8 C 88 % 1014,8 hPa 0,0 l/m 0 min 0 min 108 W/m 0,0 km/h (0 Bft) 97,83 %
03.04.2020 09:38 8,0 C 8,3 C 7,8 C 88 % 1014,8 hPa 0,0 l/m 0 min 0 min 105 W/m 3,2 km/h (1 Bft) 95,74 %
03.04.2020 09:40 8,1 C 8,3 C 7,8 C 88 % 1014,8 hPa 0,0 l/m 0 min 0 min 113 W/m 3,2 km/h (1 Bft) 97,87 %
03.04.2020 09:42 8,1 C 8,3 C 7,8 C 88 % 1014,8 hPa 0,0 l/m 0 min 0 min 122 W/m 6,4 km/h (2 Bft) 97,87 %
03.04.2020 09:44 8,1 C 8,3 C 7,8 C 88 % 1014,8 hPa 0,0 l/m 0 min 0 min 129 W/m 9,7 km/h (2 Bft) 97,87 %
03.04.2020 09:46 8,1 C 8,3 C 7,8 C 88 % 1014,8 hPa 0,0 l/m 0 min 0 min 142 W/m 3,2 km/h (1 Bft) 97,87 %
03.04.2020 09:48 8,2 C 8,9 C 8,3 C 88 % 1014,9 hPa 0,0 l/m 0 min 0 min 153 W/m 0,0 km/h (0 Bft) 97,83 %
03.04.2020 09:50 8,2 C 8,9 C 8,3 C 88 % 1014,9 hPa 0,0 l/m 0 min 0 min 155 W/m 9,7 km/h (2 Bft) 97,87 %
03.04.2020 09:52 8,2 C 8,9 C 8,3 C 88 % 1014,9 hPa 0,0 l/m 0 min 0 min 149 W/m 16,1 km/h (3 Bft) 97,87 %
03.04.2020 09:54 8,3 C 8,9 C 8,3 C 88 % 1014,9 hPa 0,0 l/m 0 min 0 min 147 W/m 6,4 km/h (2 Bft) 95,74 %
03.04.2020 09:56 8,3 C 8,9 C 8,3 C 87 % 1015,0 hPa 0,0 l/m 0 min 0 min 150 W/m 3,2 km/h (1 Bft) 95,74 %
03.04.2020 09:58 8,3 C 9,4 C 8,3 C 87 % 1015,0 hPa 0,0 l/m 0 min 0 min 166 W/m 9,7 km/h (2 Bft) 97,87 %
03.04.2020 10:00 8,4 C 9,4 C 8,9 C 87 % 1015,0 hPa 0,0 l/m 0 min 0 min 192 W/m 16,1 km/h (3 Bft) 97,83 %
03.04.2020 10:02 8,4 C 10,0 C 8,9 C 87 % 1015,0 hPa 0,0 l/m 0 min 0 min 211 W/m 0,0 km/h (0 Bft) 95,74 %
03.04.2020 10:04 8,5 C 10,6 C 9,4 C 88 % 1015,0 hPa 0,0 l/m 2 min 0 min 236 W/m 0,0 km/h (0 Bft) 97,87 %
03.04.2020 10:06 8,6 C 10,6 C 9,4 C 88 % 1015,0 hPa 0,0 l/m 0 min 0 min 207 W/m 0,0 km/h (0 Bft) 95,74 %
03.04.2020 10:08 8,6 C 10,6 C 9,4 C 87 % 1015,0 hPa 0,0 l/m 0 min 0 min 210 W/m 0,0 km/h (0 Bft) 97,87 %
03.04.2020 10:10 8,7 C 10,6 C 9,4 C 87 % 1015,0 hPa 0,0 l/m 0 min 0 min 222 W/m 0,0 km/h (0 Bft) 100,00 %
03.04.2020 10:12 8,8 C 10,6 C 9,4 C 87 % 1015,1 hPa 0,0 l/m 2 min 0 min 233 W/m 0,0 km/h (0 Bft) 93,48 %
03.04.2020 10:14 8,8 C 10,6 C 9,4 C 87 % 1015,0 hPa 0,0 l/m 2 min 0 min 254 W/m 3,2 km/h (1 Bft) 97,87 %
03.04.2020 10:16 8,9 C 11,1 C 10,0 C 86 % 1015,1 hPa 0,0 l/m 2 min 0 min 266 W/m 6,4 km/h (2 Bft) 97,87 %
03.04.2020 10:18 9,0 C 11,7 C 10,6 C 86 % 1015,1 hPa 0,0 l/m 2 min 0 min 278 W/m 16,1 km/h (3 Bft) 100,00 %
03.04.2020 10:20 9,1 C 11,1 C 10,6 C 86 % 1015,2 hPa 0,0 l/m 2 min 0 min 242 W/m 9,7 km/h (2 Bft) 97,87 %
03.04.2020 10:22 9,1 C 11,1 C 10,6 C 86 % 1015,2 hPa 0,0 l/m 0 min 0 min 236 W/m 6,4 km/h (2 Bft) 97,87 %
03.04.2020 10:24 9,2 C 11,7 C 10,6 C 86 % 1015,2 hPa 0,0 l/m 2 min 0 min 244 W/m 0,0 km/h (0 Bft) 100,00 %
03.04.2020 10:26 9,3 C 11,7 C 10,6 C 86 % 1015,2 hPa 0,0 l/m 2 min 0 min 244 W/m 3,2 km/h (1 Bft) 97,87 %
03.04.2020 10:28 9,4 C 11,7 C 10,6 C 86 % 1015,2 hPa 0,0 l/m 0 min 0 min 236 W/m 3,2 km/h (1 Bft) 97,87 %
03.04.2020 10:30 9,5 C 11,7 C 11,1 C 85 % 1015,3 hPa 0,0 l/m 2 min 0 min 261 W/m 6,4 km/h (2 Bft) 95,74 %
03.04.2020 10:32 9,6 C 11,7 C 11,1 C 85 % 1015,3 hPa 0,0 l/m 2 min 0 min 276 W/m 3,2 km/h (1 Bft) 100,00 %
03.04.2020 10:34 9,7 C 11,7 C 11,1 C 85 % 1015,3 hPa 0,0 l/m 2 min 0 min 285 W/m 9,7 km/h (2 Bft) 97,83 %
03.04.2020 10:36 9,8 C 12,2 C 11,1 C 84 % 1015,4 hPa 0,0 l/m 2 min 0 min 303 W/m 6,4 km/h (2 Bft) 97,87 %
03.04.2020 10:38 9,8 C 12,2 C 11,7 C 84 % 1015,4 hPa 0,0 l/m 2 min 0 min 294 W/m 6,4 km/h (2 Bft) 100,00 %
03.04.2020 10:40 9,8 C 12,2 C 11,1 C 84 % 1015,4 hPa 0,0 l/m 0 min 0 min 255 W/m 6,4 km/h (2 Bft) 100,00 %
03.04.2020 10:42 9,9 C 12,8 C 11,7 C 84 % 1015,4 hPa 0,0 l/m 2 min 0 min 267 W/m 9,7 km/h (2 Bft) 100,00 %
03.04.2020 10:44 10,1 C 12,8 C 11,7 C 84 % 1015,4 hPa 0,0 l/m 2 min 0 min 283 W/m 3,2 km/h (1 Bft) 97,87 %
03.04.2020 10:46 10,1 C 12,8 C 11,7 C 83 % 1015,5 hPa 0,0 l/m 2 min 0 min 305 W/m 6,4 km/h (2 Bft) 100,00 %
03.04.2020 10:48 10,2 C 13,9 C 12,8 C 83 % 1015,6 hPa 0,0 l/m 2 min 0 min 347 W/m 12,9 km/h (3 Bft) 100,00 %
03.04.2020 10:50 10,4 C 13,9 C 12,8 C 83 % 1015,6 hPa 0,0 l/m 2 min 0 min 353 W/m 3,2 km/h (1 Bft) 100,00 %
03.04.2020 10:52 10,5 C 13,9 C 12,8 C 83 % 1015,6 hPa 0,0 l/m 2 min 0 min 356 W/m 9,7 km/h (2 Bft) 97,87 %
03.04.2020 10:54 10,6 C 13,9 C 12,2 C 82 % 1015,6 hPa 0,0 l/m 2 min 0 min 349 W/m 9,7 km/h (2 Bft) 95,74 %
03.04.2020 10:56 10,7 C 13,9 C 12,2 C 82 % 1015,6 hPa 0,0 l/m 2 min 0 min 343 W/m 9,7 km/h (2 Bft) 97,87 %
03.04.2020 10:58 10,7 C 13,9 C 12,2 C 82 % 1015,6 hPa 0,0 l/m 2 min 0 min 343 W/m 6,4 km/h (2 Bft) 93,48 %
03.04.2020 11:00 10,8 C 13,9 C 12,2 C 81 % 1015,6 hPa 0,0 l/m 2 min 0 min 328 W/m 9,7 km/h (2 Bft) 97,87 %
03.04.2020 11:02 10,9 C 13,3 C 12,2 C 81 % 1015,6 hPa 0,0 l/m 2 min 0 min 292 W/m 12,9 km/h (3 Bft) 93,62 %
03.04.2020 11:04 10,9 C 13,9 C 12,2 C 80 % 1015,6 hPa 0,0 l/m 2 min 0 min 301 W/m 6,4 km/h (2 Bft) 93,62 %
03.04.2020 11:06 11,0 C 13,9 C 12,2 C 80 % 1015,6 hPa 0,0 l/m 2 min 0 min 346 W/m 12,9 km/h (3 Bft) 95,74 %
03.04.2020 11:08 11,1 C 13,9 C 12,2 C 80 % 1015,6 hPa 0,0 l/m 2 min 0 min 306 W/m 9,7 km/h (2 Bft) 95,74 %
03.04.2020 11:10 11,1 C 13,3 C 12,2 C 79 % 1015,6 hPa 0,0 l/m 2 min 0 min 304 W/m 3,2 km/h (1 Bft) 96,30 %
03.04.2020 11:12 11,1 C 13,3 C 12,2 C 79 % 1015,7 hPa 0,0 l/m 2 min 0 min 286 W/m 3,2 km/h (1 Bft) 95,74 %
03.04.2020 11:14 11,2 C 12,8 C 12,2 C 79 % 1015,7 hPa 0,0 l/m 0 min 0 min 268 W/m 6,4 km/h (2 Bft) 95,74 %
03.04.2020 11:16 11,2 C 13,3 C 12,2 C 78 % 1015,7 hPa 0,0 l/m 2 min 0 min 308 W/m 12,9 km/h (3 Bft) 85,11 %
03.04.2020 11:18 11,2 C 13,9 C 12,2 C 78 % 1015,7 hPa 0,0 l/m 2 min 0 min 322 W/m 3,2 km/h (1 Bft) 60,00 %
03.04.2020 11:20 11,3 C 14,4 C 12,8 C 78 % 1015,7 hPa 0,0 l/m 2 min 0 min 345 W/m 0,0 km/h (0 Bft) 95,74 %
03.04.2020 11:22 11,3 C 13,9 C 12,8 C 78 % 1015,7 hPa 0,0 l/m 2 min 0 min 311 W/m 3,2 km/h (1 Bft) 95,65 %
03.04.2020 11:24 11,4 C 13,3 C 12,2 C 78 % 1015,6 hPa 0,0 l/m 0 min 0 min 273 W/m 6,4 km/h (2 Bft) 95,74 %
03.04.2020 11:26 11,4 C 13,3 C 12,2 C 77 % 1015,7 hPa 0,0 l/m 2 min 0 min 341 W/m 12,9 km/h (3 Bft) 95,74 %
03.04.2020 11:28 11,5 C 13,9 C 12,2 C 76 % 1015,8 hPa 0,0 l/m 2 min 0 min 344 W/m 6,4 km/h (2 Bft) 95,74 %
03.04.2020 11:30 11,5 C 13,3 C 12,2 C 76 % 1015,7 hPa 0,0 l/m 0 min 0 min 276 W/m 12,9 km/h (3 Bft) 93,62 %
03.04.2020 11:32 11,5 C 12,2 C 12,2 C 75 % 1015,8 hPa 0,0 l/m 0 min 0 min 271 W/m 9,7 km/h (2 Bft) 97,87 %
03.04.2020 11:34 11,6 C 13,3 C 12,2 C 75 % 1015,8 hPa 0,0 l/m 2 min 0 min 328 W/m 12,9 km/h (3 Bft) 95,65 %
03.04.2020 11:36 11,6 C 14,4 C 12,2 C 75 % 1015,8 hPa 0,0 l/m 2 min 0 min 362 W/m 12,9 km/h (3 Bft) 97,87 %
03.04.2020 11:38 11,6 C 15,6 C 12,8 C 75 % 1015,8 hPa 0,0 l/m 2 min 0 min 362 W/m 12,9 km/h (3 Bft) 97,87 %
03.04.2020 11:40 11,7 C 16,1 C 12,8 C 74 % 1015,8 hPa 0,0 l/m 2 min 0 min 822 W/m 12,9 km/h (3 Bft) 97,37 %
03.04.2020 11:42 11,8 C 15,0 C 12,8 C 74 % 1015,9 hPa 0,0 l/m 2 min 0 min 671 W/m 12,9 km/h (3 Bft) 97,87 %
03.04.2020 11:44 11,8 C 13,3 C 12,2 C 74 % 1015,9 hPa 0,0 l/m 0 min 0 min 241 W/m 16,1 km/h (3 Bft) 97,87 %
03.04.2020 11:46 11,8 C 12,2 C 11,7 C 73 % 1015,9 hPa 0,0 l/m 0 min 0 min 183 W/m 12,9 km/h (3 Bft) 97,83 %
03.04.2020 11:48 11,8 C 11,7 C 11,7 C 72 % 1015,9 hPa 0,0 l/m 0 min 0 min 155 W/m 9,7 km/h (2 Bft) 97,87 %
03.04.2020 11:50 11,7 C 11,1 C 11,1 C 71 % 1016,0 hPa 0,0 l/m 0 min 0 min 134 W/m 6,4 km/h (2 Bft) 97,87 %
03.04.2020 11:52 11,7 C 11,1 C 11,1 C 71 % 1015,9 hPa 0,0 l/m 0 min 0 min 117 W/m 6,4 km/h (2 Bft) 95,74 %
03.04.2020 11:54 11,6 C 10,6 C 10,6 C 72 % 1016,0 hPa 0,0 l/m 0 min 0 min 105 W/m 12,9 km/h (3 Bft) 95,74 %
03.04.2020 11:56 11,6 C 10,6 C 10,6 C 72 % 1016,0 hPa 0,0 l/m 0 min 0 min 97 W/m 12,9 km/h (3 Bft) 93,62 %
03.04.2020 11:58 11,5 C 10,6 C 10,6 C 72 % 1015,9 hPa 0,0 l/m 0 min 0 min 89 W/m 3,2 km/h (1 Bft) 95,74 %
03.04.2020 12:00 11,4 C 10,6 C 10,6 C 72 % 1016,1 hPa 0,0 l/m 0 min 0 min 80 W/m 3,2 km/h (1 Bft) 93,48 %
03.04.2020 12:02 11,3 C 10,0 C 10,0 C 71 % 1016,0 hPa 0,0 l/m 0 min 0 min 73 W/m 12,9 km/h (3 Bft) 95,74 %
03.04.2020 12:04 11,2 C 10,0 C 10,0 C 72 % 1016,1 hPa 0,0 l/m 0 min 0 min 67 W/m 9,7 km/h (2 Bft) 95,74 %
03.04.2020 12:08 11,1 C 9,4 C 10,0 C 72 % 1016,1 hPa 0,0 l/m 0 min 0 min 59 W/m 12,9 km/h (3 Bft) 94,68 %
03.04.2020 12:10 10,9 C 9,4 C 9,4 C 72 % 1016,2 hPa 0,0 l/m 0 min 0 min 68 W/m 6,4 km/h (2 Bft) 95,65 %
03.04.2020 12:12 10,9 C 9,4 C 9,4 C 73 % 1016,2 hPa 0,0 l/m 0 min 0 min 73 W/m 6,4 km/h (2 Bft) 95,74 %
03.04.2020 12:14 10,8 C 9,4 C 9,4 C 73 % 1016,3 hPa 0,0 l/m 0 min 0 min 81 W/m 12,9 km/h (3 Bft) 93,62 %
03.04.2020 12:16 10,8 C 9,4 C 9,4 C 74 % 1016,2 hPa 0,0 l/m 0 min 0 min 97 W/m 3,2 km/h (1 Bft) 95,74 %
03.04.2020 12:18 10,7 C 9,4 C 9,4 C 74 % 1016,2 hPa 0,0 l/m 0 min 0 min 118 W/m 6,4 km/h (2 Bft) 95,74 %
03.04.2020 12:20 10,7 C 10,0 C 10,0 C 75 % 1016,2 hPa 0,0 l/m 0 min 0 min 142 W/m 9,7 km/h (2 Bft) 95,74 %
03.04.2020 12:22 10,6 C 10,0 C 10,0 C 75 % 1016,3 hPa 0,0 l/m 0 min 0 min 161 W/m 9,7 km/h (2 Bft) 95,65 %
03.04.2020 12:24 10,6 C 10,6 C 10,0 C 76 % 1016,3 hPa 0,0 l/m 0 min 0 min 185 W/m 9,7 km/h (2 Bft) 93,62 %
03.04.2020 12:26 10,6 C 10,6 C 10,6 C 75 % 1016,3 hPa 0,0 l/m 0 min 0 min 209 W/m 9,7 km/h (2 Bft) 95,74 %
03.04.2020 12:28 10,6 C 10,6 C 10,6 C 75 % 1016,3 hPa 0,0 l/m 0 min 0 min 227 W/m 9,7 km/h (2 Bft) 95,74 %
03.04.2020 12:30 10,6 C 11,1 C 11,1 C 76 % 1016,3 hPa 0,0 l/m 0 min 0 min 219 W/m 16,1 km/h (3 Bft) 93,62 %
03.04.2020 12:32 10,6 C 11,1 C 10,6 C 75 % 1016,3 hPa 0,0 l/m 0 min 0 min 200 W/m 9,7 km/h (2 Bft) 95,74 %
03.04.2020 12:34 10,6 C 10,6 C 10,6 C 75 % 1016,3 hPa 0,0 l/m 0 min 0 min 187 W/m 12,9 km/h (3 Bft) 95,65 %
03.04.2020 12:36 10,6 C 10,6 C 10,6 C 74 % 1016,3 hPa 0,0 l/m 0 min 0 min 180 W/m 9,7 km/h (2 Bft) 95,74 %
03.04.2020 12:38 10,6 C 10,6 C 10,6 C 74 % 1016,4 hPa 0,0 l/m 0 min 0 min 192 W/m 16,1 km/h (3 Bft) 100,00 %
03.04.2020 12:40 10,6 C 11,1 C 10,6 C 74 % 1016,3 hPa 0,0 l/m 0 min 0 min 220 W/m 12,9 km/h (3 Bft) 100,00 %
03.04.2020 12:42 10,6 C 11,7 C 11,1 C 74 % 1016,3 hPa 0,0 l/m 0 min 0 min 263 W/m 6,4 km/h (2 Bft) 100,00 %
03.04.2020 12:44 10,6 C 12,2 C 11,7 C 75 % 1016,3 hPa 0,0 l/m 0 min 0 min 301 W/m 6,4 km/h (2 Bft) 95,74 %
03.04.2020 12:46 10,7 C 15,6 C 12,2 C 74 % 1016,3 hPa 0,0 l/m 2 min 0 min 492 W/m 12,9 km/h (3 Bft) 97,83 %
03.04.2020 12:48 10,9 C 16,1 C 12,2 C 73 % 1016,3 hPa 0,0 l/m 2 min 0 min 696 W/m 9,7 km/h (2 Bft) 100,00 %
03.04.2020 12:50 11,0 C 14,4 C 12,2 C 72 % 1016,4 hPa 0,0 l/m 2 min 0 min 612 W/m 22,5 km/h (4 Bft) 100,00 %
03.04.2020 12:52 11,1 C 13,3 C 12,2 C 72 % 1016,3 hPa 0,0 l/m 0 min 0 min 270 W/m 19,3 km/h (3 Bft) 100,00 %
03.04.2020 12:54 11,2 C 12,8 C 11,7 C 71 % 1016,4 hPa 0,0 l/m 0 min 0 min 253 W/m 9,7 km/h (2 Bft) 100,00 %
03.04.2020 12:56 11,3 C 12,2 C 11,7 C 71 % 1016,4 hPa 0,0 l/m 0 min 0 min 249 W/m 12,9 km/h (3 Bft) 100,00 %
03.04.2020 12:58 11,3 C 12,2 C 11,7 C 71 % 1016,4 hPa 0,0 l/m 0 min 0 min 252 W/m 12,9 km/h (3 Bft) 100,00 %
03.04.2020 13:00 11,3 C 12,2 C 11,7 C 71 % 1016,4 hPa 0,0 l/m 0 min 0 min 259 W/m 12,9 km/h (3 Bft) 100,00 %
03.04.2020 13:02 11,3 C 11,7 C 11,7 C 70 % 1016,5 hPa 0,0 l/m 0 min 0 min 269 W/m 19,3 km/h (3 Bft) 100,00 %
03.04.2020 13:04 11,3 C 11,7 C 11,7 C 69 % 1016,4 hPa 0,0 l/m 0 min 0 min 270 W/m 12,9 km/h (3 Bft) 100,00 %
03.04.2020 13:06 11,3 C 12,2 C 11,7 C 70 % 1016,4 hPa 0,0 l/m 0 min 0 min 273 W/m 12,9 km/h (3 Bft) 100,00 %
03.04.2020 13:08 11,3 C 12,2 C 11,7 C 70 % 1016,5 hPa 0,0 l/m 0 min 0 min 272 W/m 12,9 km/h (3 Bft) 97,83 %
03.04.2020 13:10 11,4 C 12,8 C 12,2 C 70 % 1016,5 hPa 0,0 l/m 0 min 0 min 293 W/m 12,9 km/h (3 Bft) 100,00 %
03.04.2020 13:12 11,4 C 12,8 C 12,2 C 69 % 1016,5 hPa 0,0 l/m 2 min 0 min 367 W/m 9,7 km/h (2 Bft) 97,87 %
03.04.2020 13:14 11,4 C 15,6 C 12,8 C 69 % 1016,5 hPa 0,0 l/m 2 min 0 min 413 W/m 9,7 km/h (2 Bft) 100,00 %
03.04.2020 13:16 11,6 C 15,0 C 12,8 C 70 % 1016,6 hPa 0,0 l/m 2 min 0 min 384 W/m 16,1 km/h (3 Bft) 95,74 %
03.04.2020 13:18 11,7 C 13,9 C 12,8 C 69 % 1016,5 hPa 0,0 l/m 0 min 0 min 284 W/m 6,4 km/h (2 Bft) 100,00 %
03.04.2020 13:20 11,7 C 13,3 C 12,8 C 69 % 1016,5 hPa 0,0 l/m 0 min 0 min 237 W/m 6,4 km/h (2 Bft) 97,83 %
03.04.2020 13:22 11,8 C 12,8 C 12,2 C 68 % 1016,5 hPa 0,0 l/m 0 min 0 min 205 W/m 9,7 km/h (2 Bft) 100,00 %
03.04.2020 13:24 11,8 C 12,2 C 11,7 C 68 % 1016,5 hPa 0,0 l/m 0 min 0 min 178 W/m 12,9 km/h (3 Bft) 100,00 %
03.04.2020 13:26 11,8 C 11,7 C 11,7 C 67 % 1016,6 hPa 0,0 l/m 0 min 0 min 160 W/m 16,1 km/h (3 Bft) 100,00 %
03.04.2020 13:28 11,7 C 11,1 C 11,1 C 67 % 1016,6 hPa 0,0 l/m 0 min 0 min 140 W/m 12,9 km/h (3 Bft) 100,00 %
03.04.2020 13:30 11,7 C 11,1 C 11,1 C 68 % 1016,6 hPa 0,0 l/m 0 min 0 min 120 W/m 12,9 km/h (3 Bft) 100,00 %
03.04.2020 13:32 11,7 C 10,6 C 10,6 C 68 % 1016,6 hPa 0,0 l/m 0 min 0 min 113 W/m 12,9 km/h (3 Bft) 100,00 %
03.04.2020 13:34 11,6 C 10,6 C 10,6 C 69 % 1016,6 hPa 0,0 l/m 0 min 0 min 115 W/m 9,7 km/h (2 Bft) 100,00 %
03.04.2020 13:36 11,5 C 10,6 C 10,6 C 68 % 1016,6 hPa 0,0 l/m 0 min 0 min 125 W/m 12,9 km/h (3 Bft) 97,87 %
03.04.2020 13:38 11,4 C 10,6 C 10,6 C 68 % 1016,6 hPa 0,0 l/m 0 min 0 min 134 W/m 9,7 km/h (2 Bft) 100,00 %
03.04.2020 13:40 11,3 C 10,6 C 10,6 C 68 % 1016,6 hPa 0,0 l/m 0 min 0 min 140 W/m 12,9 km/h (3 Bft) 95,74 %
03.04.2020 13:42 11,3 C 10,6 C 10,6 C 68 % 1016,6 hPa 0,0 l/m 0 min 0 min 148 W/m 9,7 km/h (2 Bft) 93,62 %
03.04.2020 13:44 11,2 C 11,1 C 10,6 C 67 % 1016,6 hPa 0,0 l/m 0 min 0 min 161 W/m 12,9 km/h (3 Bft) 97,87 %
03.04.2020 13:46 11,2 C 11,1 C 10,6 C 68 % 1016,6 hPa 0,0 l/m 0 min 0 min 180 W/m 12,9 km/h (3 Bft) 97,87 %
03.04.2020 13:48 11,2 C 11,1 C 10,6 C 68 % 1016,6 hPa 0,0 l/m 0 min 0 min 209 W/m 16,1 km/h (3 Bft) 97,87 %
03.04.2020 13:50 11,2 C 11,7 C 11,1 C 68 % 1016,6 hPa 0,0 l/m 0 min 0 min 243 W/m 9,7 km/h (2 Bft) 97,87 %
03.04.2020 13:52 11,2 C 12,2 C 11,7 C 69 % 1016,7 hPa 0,0 l/m 0 min 0 min 294 W/m 12,9 km/h (3 Bft) 95,65 %
03.04.2020 13:54 11,2 C 13,3 C 12,8 C 68 % 1016,7 hPa 0,0 l/m 0 min 0 min 337 W/m 9,7 km/h (2 Bft) 97,87 %
03.04.2020 13:56 11,3 C 14,4 C 13,9 C 69 % 1016,7 hPa 0,0 l/m 2 min 0 min 355 W/m 9,7 km/h (2 Bft) 97,87 %
03.04.2020 13:58 11,4 C 14,4 C 13,9 C 68 % 1016,6 hPa 0,0 l/m 2 min 0 min 413 W/m 12,9 km/h (3 Bft) 97,87 %
03.04.2020 14:00 11,5 C 13,3 C 12,8 C 67 % 1016,8 hPa 0,0 l/m 2 min 0 min 342 W/m 22,5 km/h (4 Bft) 95,74 %
03.04.2020 14:02 11,6 C 13,3 C 12,8 C 67 % 1016,8 hPa 0,0 l/m 0 min 0 min 283 W/m 16,1 km/h (3 Bft) 97,87 %
03.04.2020 14:04 11,6 C 13,3 C 12,8 C 67 % 1016,7 hPa 0,0 l/m 0 min 0 min 255 W/m 6,4 km/h (2 Bft) 97,83 %
03.04.2020 14:06 11,7 C 12,8 C 12,2 C 67 % 1016,7 hPa 0,0 l/m 0 min 0 min 228 W/m 16,1 km/h (3 Bft) 97,87 %
03.04.2020 14:08 11,7 C 12,2 C 11,7 C 66 % 1016,8 hPa 0,0 l/m 0 min 0 min 203 W/m 12,9 km/h (3 Bft) 97,87 %
03.04.2020 14:10 11,7 C 12,2 C 11,7 C 66 % 1016,8 hPa 0,0 l/m 0 min 0 min 179 W/m 12,9 km/h (3 Bft) 97,87 %
03.04.2020 14:12 11,7 C 11,7 C 11,7 C 66 % 1016,8 hPa 0,0 l/m 0 min 0 min 158 W/m 19,3 km/h (3 Bft) 97,87 %
03.04.2020 14:14 11,7 C 11,1 C 11,1 C 66 % 1016,9 hPa 0,0 l/m 0 min 0 min 145 W/m 19,3 km/h (3 Bft) 95,74 %
03.04.2020 14:16 11,6 C 11,1 C 10,6 C 66 % 1016,9 hPa 0,0 l/m 0 min 0 min 142 W/m 22,5 km/h (4 Bft) 95,65 %
03.04.2020 14:18 11,5 C 11,1 C 10,6 C 66 % 1016,9 hPa 0,0 l/m 0 min 0 min 145 W/m 19,3 km/h (3 Bft) 95,74 %
03.04.2020 14:20 11,4 C 10,6 C 10,6 C 66 % 1016,9 hPa 0,0 l/m 0 min 0 min 148 W/m 16,1 km/h (3 Bft) 97,87 %
03.04.2020 14:22 11,3 C 10,6 C 10,6 C 67 % 1016,9 hPa 0,0 l/m 0 min 0 min 149 W/m 22,5 km/h (4 Bft) 95,74 %
03.04.2020 14:24 11,3 C 10,6 C 10,6 C 67 % 1016,9 hPa 0,0 l/m 0 min 0 min 148 W/m 12,9 km/h (3 Bft) 97,87 %
03.04.2020 14:26 11,3 C 10,6 C 10,6 C 67 % 1017,1 hPa 0,0 l/m 0 min 0 min 145 W/m 25,7 km/h (4 Bft) 95,74 %
03.04.2020 14:28 11,2 C 10,6 C 10,6 C 67 % 1016,9 hPa 0,0 l/m 0 min 0 min 149 W/m 16,1 km/h (3 Bft) 95,65 %
03.04.2020 14:30 11,1 C 10,6 C 10,0 C 65 % 1017,1 hPa 0,0 l/m 0 min 0 min 158 W/m 29,0 km/h (5 Bft) 95,74 %
03.04.2020 14:32 10,9 C 10,6 C 10,0 C 64 % 1017,1 hPa 0,0 l/m 0 min 0 min 169 W/m 16,1 km/h (3 Bft) 95,74 %
03.04.2020 14:34 10,9 C 10,6 C 10,0 C 63 % 1017,0 hPa 0,0 l/m 0 min 0 min 183 W/m 16,1 km/h (3 Bft) 97,87 %
03.04.2020 14:36 10,8 C 10,6 C 10,6 C 63 % 1017,0 hPa 0,0 l/m 0 min 0 min 196 W/m 16,1 km/h (3 Bft) 97,87 %
03.04.2020 14:38 10,8 C 11,1 C 10,6 C 63 % 1017,1 hPa 0,0 l/m 0 min 0 min 212 W/m 16,1 km/h (3 Bft) 97,87 %
03.04.2020 14:40 10,8 C 11,1 C 10,6 C 64 % 1017,0 hPa 0,0 l/m 0 min 0 min 216 W/m 16,1 km/h (3 Bft) 97,83 %
03.04.2020 14:42 10,8 C 11,7 C 11,1 C 64 % 1017,0 hPa 0,0 l/m 0 min 0 min 218 W/m 6,4 km/h (2 Bft) 97,87 %
03.04.2020 14:44 10,8 C 11,7 C 11,1 C 64 % 1017,1 hPa 0,0 l/m 0 min 0 min 220 W/m 12,9 km/h (3 Bft) 97,87 %
03.04.2020 14:46 10,8 C 11,7 C 11,1 C 64 % 1017,0 hPa 0,0 l/m 0 min 0 min 234 W/m 16,1 km/h (3 Bft) 97,87 %
03.04.2020 14:48 10,8 C 11,7 C 11,1 C 64 % 1017,0 hPa 0,0 l/m 0 min 0 min 247 W/m 9,7 km/h (2 Bft) 97,87 %
03.04.2020 14:50 10,8 C 12,2 C 11,1 C 64 % 1017,1 hPa 0,0 l/m 0 min 0 min 258 W/m 12,9 km/h (3 Bft) 95,65 %
03.04.2020 14:52 10,9 C 12,2 C 11,1 C 64 % 1017,0 hPa 0,0 l/m 0 min 0 min 263 W/m 12,9 km/h (3 Bft) 96,15 %
03.04.2020 14:54 10,9 C 12,2 C 11,7 C 64 % 1017,0 hPa 0,0 l/m 0 min 0 min 274 W/m 19,3 km/h (3 Bft) 97,78 %
03.04.2020 14:56 10,9 C 12,2 C 11,7 C 64 % 1017,1 hPa 0,0 l/m 0 min 0 min 284 W/m 16,1 km/h (3 Bft) 97,87 %
03.04.2020 14:58 11,0 C 12,8 C 11,7 C 64 % 1017,1 hPa 0,0 l/m 0 min 0 min 306 W/m 12,9 km/h (3 Bft) 97,87 %
03.04.2020 15:00 11,1 C 12,8 C 11,7 C 64 % 1017,0 hPa 0,0 l/m 2 min 0 min 338 W/m 9,7 km/h (2 Bft) 97,87 %
03.04.2020 15:02 11,1 C 13,3 C 12,2 C 64 % 1017,0 hPa 0,0 l/m 2 min 0 min 334 W/m 3,2 km/h (1 Bft) 97,83 %
03.04.2020 15:04 11,2 C 13,3 C 12,2 C 64 % 1017,0 hPa 0,0 l/m 2 min 0 min 347 W/m 9,7 km/h (2 Bft) 95,74 %
03.04.2020 15:06 11,3 C 13,3 C 12,2 C 64 % 1017,0 hPa 0,0 l/m 2 min 0 min 347 W/m 12,9 km/h (3 Bft) 95,74 %
03.04.2020 15:08 11,4 C 13,3 C 12,2 C 64 % 1017,0 hPa 0,0 l/m 2 min 0 min 326 W/m 9,7 km/h (2 Bft) 97,87 %
03.04.2020 15:10 11,4 C 13,3 C 12,2 C 63 % 1017,0 hPa 0,0 l/m 0 min 0 min 294 W/m 12,9 km/h (3 Bft) 100,00 %
03.04.2020 15:12 11,5 C 12,8 C 12,2 C 63 % 1017,0 hPa 0,0 l/m 0 min 0 min 253 W/m 6,4 km/h (2 Bft) 95,92 %
03.04.2020 15:14 11,6 C 12,8 C 12,2 C 64 % 1017,0 hPa 0,0 l/m 0 min 0 min 211 W/m 9,7 km/h (2 Bft) 97,87 %
03.04.2020 15:16 11,6 C 12,2 C 11,7 C 64 % 1017,0 hPa 0,0 l/m 0 min 0 min 165 W/m 19,3 km/h (3 Bft) 97,87 %
03.04.2020 15:18 11,6 C 11,7 C 11,7 C 64 % 1017,0 hPa 0,0 l/m 0 min 0 min 127 W/m 12,9 km/h (3 Bft) 100,00 %
03.04.2020 15:20 11,6 C 11,7 C 11,1 C 63 % 1017,0 hPa 0,0 l/m 0 min 0 min 104 W/m 16,1 km/h (3 Bft) 100,00 %
03.04.2020 15:22 11,6 C 11,1 C 11,1 C 63 % 1017,1 hPa 0,0 l/m 0 min 0 min 98 W/m 29,0 km/h (5 Bft) 97,87 %
03.04.2020 15:24 11,5 C 11,1 C 10,6 C 62 % 1017,1 hPa 0,0 l/m 0 min 0 min 111 W/m 22,5 km/h (4 Bft) 100,00 %
03.04.2020 15:26 11,4 C 11,1 C 10,6 C 62 % 1017,1 hPa 0,0 l/m 0 min 0 min 128 W/m 12,9 km/h (3 Bft) 97,87 %
03.04.2020 15:28 11,4 C 11,1 C 10,6 C 62 % 1017,2 hPa 0,0 l/m 0 min 0 min 157 W/m 16,1 km/h (3 Bft) 100,00 %
03.04.2020 15:30 11,3 C 11,1 C 10,6 C 61 % 1017,2 hPa 0,0 l/m 0 min 0 min 174 W/m 16,1 km/h (3 Bft) 100,00 %
03.04.2020 15:32 11,3 C 11,7 C 11,1 C 61 % 1017,1 hPa 0,0 l/m 0 min 0 min 187 W/m 19,3 km/h (3 Bft) 97,87 %
03.04.2020 15:34 11,3 C 11,7 C 11,1 C 60 % 1017,1 hPa 0,0 l/m 0 min 0 min 206 W/m 12,9 km/h (3 Bft) 100,00 %
03.04.2020 15:36 11,3 C 11,7 C 11,1 C 61 % 1017,2 hPa 0,0 l/m 0 min 0 min 219 W/m 16,1 km/h (3 Bft) 100,00 %
03.04.2020 15:38 11,3 C 11,7 C 11,1 C 60 % 1017,2 hPa 0,0 l/m 0 min 0 min 226 W/m 9,7 km/h (2 Bft) 95,74 %
03.04.2020 15:40 11,3 C 12,2 C 11,1 C 60 % 1017,2 hPa 0,0 l/m 0 min 0 min 224 W/m 22,5 km/h (4 Bft) 97,87 %
03.04.2020 15:42 11,3 C 11,7 C 11,1 C 60 % 1017,2 hPa 0,0 l/m 0 min 0 min 215 W/m 25,7 km/h (4 Bft) 95,74 %
03.04.2020 15:44 11,3 C 11,7 C 11,1 C 60 % 1017,2 hPa 0,0 l/m 0 min 0 min 214 W/m 19,3 km/h (3 Bft) 97,87 %
03.04.2020 15:46 11,3 C 12,2 C 11,1 C 61 % 1017,2 hPa 0,0 l/m 0 min 0 min 228 W/m 12,9 km/h (3 Bft) 97,87 %
03.04.2020 15:48 11,3 C 12,2 C 11,1 C 61 % 1017,2 hPa 0,0 l/m 0 min 0 min 247 W/m 22,5 km/h (4 Bft) 97,83 %
03.04.2020 15:50 11,3 C 12,2 C 11,7 C 61 % 1017,3 hPa 0,0 l/m 0 min 0 min 293 W/m 25,7 km/h (4 Bft) 97,87 %
03.04.2020 15:52 11,4 C 12,8 C 11,7 C 61 % 1017,3 hPa 0,0 l/m 2 min 0 min 319 W/m 12,9 km/h (3 Bft) 95,74 %
03.04.2020 15:54 11,4 C 13,3 C 11,7 C 60 % 1017,3 hPa 0,0 l/m 2 min 0 min 363 W/m 22,5 km/h (4 Bft) 97,87 %
03.04.2020 15:56 11,5 C 13,3 C 11,7 C 60 % 1017,3 hPa 0,0 l/m 2 min 0 min 346 W/m 25,7 km/h (4 Bft) 97,87 %
03.04.2020 15:58 11,6 C 12,8 C 12,2 C 60 % 1017,3 hPa 0,0 l/m 2 min 0 min 324 W/m 19,3 km/h (3 Bft) 97,83 %
03.04.2020 16:00 11,6 C 12,8 C 12,2 C 60 % 1017,3 hPa 0,0 l/m 2 min 0 min 308 W/m 19,3 km/h (3 Bft) 97,87 %
03.04.2020 16:02 11,6 C 12,8 C 11,7 C 58 % 1017,3 hPa 0,0 l/m 2 min 0 min 299 W/m 22,5 km/h (4 Bft) 95,74 %
03.04.2020 16:04 11,7 C 12,8 C 12,2 C 59 % 1017,3 hPa 0,0 l/m 2 min 0 min 295 W/m 16,1 km/h (3 Bft) 97,87 %
03.04.2020 16:06 11,7 C 12,8 C 12,2 C 58 % 1017,3 hPa 0,0 l/m 2 min 0 min 324 W/m 9,7 km/h (2 Bft) 97,87 %
03.04.2020 16:08 11,7 C 12,8 C 12,2 C 58 % 1017,3 hPa 0,0 l/m 2 min 0 min 315 W/m 16,1 km/h (3 Bft) 97,87 %
03.04.2020 16:10 11,8 C 12,8 C 11,7 C 57 % 1017,3 hPa 0,0 l/m 2 min 0 min 308 W/m 22,5 km/h (4 Bft) 97,87 %
03.04.2020 16:12 11,8 C 12,8 C 11,7 C 57 % 1017,4 hPa 0,0 l/m 2 min 0 min 305 W/m 19,3 km/h (3 Bft) 97,83 %
03.04.2020 16:14 11,8 C 12,8 C 11,7 C 57 % 1017,3 hPa 0,0 l/m 2 min 0 min 299 W/m 19,3 km/h (3 Bft) 97,87 %
03.04.2020 16:16 11,8 C 12,8 C 11,7 C 56 % 1017,3 hPa 0,0 l/m 2 min 0 min 382 W/m 35,4 km/h (5 Bft) 97,87 %
03.04.2020 16:18 11,8 C 13,9 C 12,2 C 57 % 1017,5 hPa 0,0 l/m 2 min 0 min 451 W/m 25,7 km/h (4 Bft) 97,87 %
03.04.2020 16:20 11,8 C 13,9 C 12,2 C 58 % 1017,5 hPa 0,0 l/m 2 min 0 min 490 W/m 19,3 km/h (3 Bft) 97,87 %
03.04.2020 16:22 11,9 C 13,9 C 12,2 C 59 % 1017,5 hPa 0,0 l/m 2 min 0 min 486 W/m 19,3 km/h (3 Bft) 95,65 %
03.04.2020 16:24 11,9 C 13,9 C 12,2 C 60 % 1017,5 hPa 0,0 l/m 2 min 0 min 394 W/m 25,7 km/h (4 Bft) 97,87 %
03.04.2020 16:26 11,9 C 13,3 C 12,2 C 59 % 1017,6 hPa 0,0 l/m 2 min 0 min 333 W/m 25,7 km/h (4 Bft) 95,74 %
03.04.2020 16:28 11,9 C 13,9 C 12,2 C 60 % 1017,5 hPa 0,0 l/m 2 min 0 min 348 W/m 16,1 km/h (3 Bft) 97,87 %
03.04.2020 16:30 11,9 C 12,8 C 11,7 C 59 % 1017,6 hPa 0,0 l/m 2 min 0 min 286 W/m 19,3 km/h (3 Bft) 97,87 %
03.04.2020 16:32 11,9 C 12,2 C 11,7 C 58 % 1017,6 hPa 0,0 l/m 0 min 0 min 234 W/m 19,3 km/h (3 Bft) 95,74 %
03.04.2020 16:34 11,9 C 14,4 C 11,7 C 58 % 1017,6 hPa 0,0 l/m 2 min 0 min 342 W/m 22,5 km/h (4 Bft) 97,83 %
03.04.2020 16:36 11,9 C 16,1 C 12,2 C 59 % 1017,6 hPa 0,0 l/m 2 min 0 min 719 W/m 16,1 km/h (3 Bft) 95,74 %
03.04.2020 16:38 12,0 C 16,7 C 12,8 C 59 % 1017,7 hPa 0,0 l/m 2 min 0 min 524 W/m 22,5 km/h (4 Bft) 97,87 %
03.04.2020 16:40 12,2 C 16,1 C 12,8 C 58 % 1017,6 hPa 0,0 l/m 2 min 0 min 520 W/m 25,7 km/h (4 Bft) 95,74 %
03.04.2020 16:42 12,2 C 13,9 C 12,2 C 56 % 1017,7 hPa 0,0 l/m 2 min 0 min 533 W/m 25,7 km/h (4 Bft) 97,87 %
03.04.2020 16:44 12,1 C 12,2 C 11,7 C 56 % 1017,7 hPa 0,0 l/m 0 min 0 min 180 W/m 25,7 km/h (4 Bft) 95,74 %
03.04.2020 16:46 12,1 C 11,7 C 11,1 C 56 % 1017,7 hPa 0,0 l/m 0 min 0 min 166 W/m 19,3 km/h (3 Bft) 95,65 %
03.04.2020 16:48 11,9 C 11,7 C 10,6 C 57 % 1017,7 hPa 0,0 l/m 0 min 0 min 168 W/m 16,1 km/h (3 Bft) 93,62 %
03.04.2020 16:50 11,8 C 11,1 C 10,6 C 57 % 1017,7 hPa 0,0 l/m 0 min 0 min 185 W/m 22,5 km/h (4 Bft) 97,87 %
03.04.2020 16:52 11,7 C 11,1 C 10,6 C 57 % 1017,7 hPa 0,0 l/m 0 min 0 min 220 W/m 19,3 km/h (3 Bft) 95,74 %
03.04.2020 16:54 11,6 C 11,7 C 11,1 C 57 % 1017,7 hPa 0,0 l/m 2 min 0 min 272 W/m 16,1 km/h (3 Bft) 100,00 %
03.04.2020 16:56 11,6 C 12,8 C 11,7 C 57 % 1017,7 hPa 0,0 l/m 2 min 0 min 307 W/m 22,5 km/h (4 Bft) 95,74 %
03.04.2020 16:58 11,6 C 13,9 C 12,8 C 58 % 1017,7 hPa 0,0 l/m 2 min 0 min 352 W/m 12,9 km/h (3 Bft) 95,65 %
03.04.2020 17:00 11,6 C 13,9 C 12,8 C 59 % 1017,8 hPa 0,0 l/m 2 min 0 min 472 W/m 19,3 km/h (3 Bft) 95,74 %
03.04.2020 17:02 11,6 C 12,8 C 12,2 C 59 % 1017,8 hPa 0,0 l/m 2 min 0 min 272 W/m 22,5 km/h (4 Bft) 93,62 %
03.04.2020 17:04 11,7 C 13,3 C 12,2 C 59 % 1017,8 hPa 0,0 l/m 2 min 0 min 267 W/m 9,7 km/h (2 Bft) 95,74 %
03.04.2020 17:06 11,6 C 13,3 C 12,2 C 58 % 1017,8 hPa 0,0 l/m 2 min 0 min 281 W/m 6,4 km/h (2 Bft) 93,62 %
03.04.2020 17:08 11,7 C 13,3 C 12,2 C 59 % 1017,7 hPa 0,0 l/m 2 min 0 min 301 W/m 22,5 km/h (4 Bft) 95,65 %
03.04.2020 17:10 11,7 C 12,8 C 12,2 C 59 % 1017,8 hPa 0,0 l/m 2 min 0 min 241 W/m 16,1 km/h (3 Bft) 95,74 %
03.04.2020 17:12 11,7 C 12,2 C 11,7 C 59 % 1017,7 hPa 0,0 l/m 2 min 0 min 243 W/m 16,1 km/h (3 Bft) 95,74 %
03.04.2020 17:14 11,6 C 11,7 C 11,1 C 58 % 1017,8 hPa 0,0 l/m 0 min 0 min 174 W/m 29,0 km/h (5 Bft) 95,74 %
03.04.2020 17:16 11,6 C 11,1 C 10,6 C 58 % 1017,8 hPa 0,0 l/m 0 min 0 min 151 W/m 19,3 km/h (3 Bft) 93,62 %
03.04.2020 17:18 11,5 C 11,1 C 10,6 C 58 % 1017,8 hPa 0,0 l/m 0 min 0 min 142 W/m 12,9 km/h (3 Bft) 95,74 %
03.04.2020 17:20 11,4 C 11,1 C 10,6 C 58 % 1017,9 hPa 0,0 l/m 0 min 0 min 146 W/m 22,5 km/h (4 Bft) 95,74 %
03.04.2020 17:22 11,3 C 11,1 C 10,6 C 58 % 1017,9 hPa 0,0 l/m 0 min 0 min 190 W/m 16,1 km/h (3 Bft) 93,62 %
03.04.2020 17:24 11,2 C 12,8 C 11,7 C 58 % 1017,9 hPa 0,0 l/m 2 min 0 min 314 W/m 25,7 km/h (4 Bft) 97,87 %
03.04.2020 17:26 11,2 C 13,3 C 12,2 C 59 % 1017,8 hPa 0,0 l/m 2 min 0 min 398 W/m 12,9 km/h (3 Bft) 97,87 %
03.04.2020 17:28 11,3 C 12,2 C 11,7 C 59 % 1017,8 hPa 0,0 l/m 2 min 0 min 221 W/m 16,1 km/h (3 Bft) 100,00 %
03.04.2020 17:30 11,3 C 11,7 C 11,1 C 59 % 1017,9 hPa 0,0 l/m 0 min 0 min 145 W/m 16,1 km/h (3 Bft) 97,87 %
03.04.2020 17:32 11,2 C 11,1 C 10,6 C 58 % 1017,9 hPa 0,0 l/m 0 min 0 min 135 W/m 22,5 km/h (4 Bft) 97,83 %
03.04.2020 17:34 11,2 C 11,1 C 10,6 C 58 % 1017,9 hPa 0,0 l/m 0 min 0 min 174 W/m 12,9 km/h (3 Bft) 95,74 %
03.04.2020 17:36 11,1 C 11,1 C 10,0 C 58 % 1017,9 hPa 0,0 l/m 2 min 0 min 256 W/m 16,1 km/h (3 Bft) 68,09 %
03.04.2020 17:38 11,1 C 10,6 C 10,0 C 58 % 1018,0 hPa 0,0 l/m 2 min 0 min 209 W/m 25,7 km/h (4 Bft) 84,62 %
03.04.2020 17:40 11,0 C 11,1 C 10,0 C 58 % 1017,9 hPa 0,0 l/m 0 min 0 min 163 W/m 12,9 km/h (3 Bft) 97,87 %
03.04.2020 17:42 11,0 C 12,8 C 10,0 C 59 % 1018,1 hPa 0,0 l/m 0 min 0 min 163 W/m 12,9 km/h (3 Bft) 100,00 %
03.04.2020 17:44 11,1 C 13,9 C 10,6 C 60 % 1018,0 hPa 0,0 l/m 2 min 0 min 426 W/m 16,1 km/h (3 Bft) 100,00 %
03.04.2020 17:46 11,1 C 13,9 C 10,6 C 60 % 1018,0 hPa 0,0 l/m 2 min 0 min 408 W/m 12,9 km/h (3 Bft) 95,74 %
03.04.2020 17:48 11,2 C 14,4 C 10,6 C 60 % 1018,0 hPa 0,0 l/m 2 min 0 min 426 W/m 19,3 km/h (3 Bft) 97,87 %
03.04.2020 17:50 11,2 C 13,9 C 10,6 C 60 % 1018,0 hPa 0,0 l/m 2 min 0 min 376 W/m 22,5 km/h (4 Bft) 97,87 %
03.04.2020 17:52 11,3 C 12,2 C 10,6 C 59 % 1018,0 hPa 0,0 l/m 0 min 0 min 136 W/m 12,9 km/h (3 Bft) 100,00 %
03.04.2020 17:54 11,3 C 11,7 C 10,6 C 59 % 1018,1 hPa 0,0 l/m 0 min 0 min 135 W/m 12,9 km/h (3 Bft) 100,00 %
03.04.2020 17:56 11,3 C 11,1 C 10,6 C 59 % 1018,0 hPa 0,0 l/m 0 min 0 min 151 W/m 16,1 km/h (3 Bft) 100,00 %
03.04.2020 17:58 11,3 C 11,1 C 10,6 C 59 % 1018,0 hPa 0,0 l/m 0 min 0 min 166 W/m 9,7 km/h (2 Bft) 100,00 %
03.04.2020 18:00 11,2 C 11,7 C 10,6 C 58 % 1018,0 hPa 0,0 l/m 2 min 0 min 197 W/m 12,9 km/h (3 Bft) 100,00 %
03.04.2020 18:02 11,2 C 12,8 C 10,6 C 58 % 1018,1 hPa 0,0 l/m 2 min 0 min 340 W/m 19,3 km/h (3 Bft) 100,00 %
03.04.2020 18:04 11,3 C 13,9 C 11,1 C 58 % 1018,2 hPa 0,0 l/m 2 min 0 min 396 W/m 6,4 km/h (2 Bft) 100,00 %
03.04.2020 18:08 11,3 C 13,9 C 11,1 C 57 % 1018,2 hPa 0,0 l/m 4 min 0 min 370 W/m 16,1 km/h (3 Bft) 100,00 %
03.04.2020 18:10 11,4 C 12,8 C 11,1 C 56 % 1018,1 hPa 0,0 l/m 2 min 0 min 369 W/m 9,7 km/h (2 Bft) 100,00 %
03.04.2020 18:12 11,4 C 12,2 C 11,1 C 56 % 1018,2 hPa 0,0 l/m 2 min 0 min 311 W/m 16,1 km/h (3 Bft) 100,00 %
03.04.2020 18:14 11,4 C 11,7 C 11,1 C 55 % 1018,2 hPa 0,0 l/m 2 min 0 min 253 W/m 6,4 km/h (2 Bft) 100,00 %
03.04.2020 18:16 11,5 C 11,7 C 11,1 C 55 % 1018,2 hPa 0,0 l/m 2 min 0 min 151 W/m 19,3 km/h (3 Bft) 100,00 %
03.04.2020 18:18 11,5 C 11,7 C 11,1 C 55 % 1018,2 hPa 0,0 l/m 2 min 0 min 145 W/m 25,7 km/h (4 Bft) 100,00 %
03.04.2020 18:20 11,5 C 11,7 C 10,6 C 54 % 1018,3 hPa 0,0 l/m 2 min 0 min 145 W/m 16,1 km/h (3 Bft) 100,00 %
03.04.2020 18:22 11,5 C 11,7 C 10,6 C 55 % 1018,3 hPa 0,0 l/m 0 min 0 min 136 W/m 19,3 km/h (3 Bft) 100,00 %
03.04.2020 18:24 11,4 C 11,1 C 10,6 C 55 % 1018,3 hPa 0,0 l/m 0 min 0 min 130 W/m 19,3 km/h (3 Bft) 100,00 %
03.04.2020 18:26 11,4 C 11,1 C 10,6 C 55 % 1018,3 hPa 0,0 l/m 0 min 0 min 112 W/m 16,1 km/h (3 Bft) 100,00 %
03.04.2020 18:28 11,4 C 10,6 C 10,6 C 56 % 1018,3 hPa 0,0 l/m 0 min 0 min 102 W/m 12,9 km/h (3 Bft) 100,00 %
03.04.2020 18:30 11,3 C 10,6 C 10,6 C 56 % 1018,4 hPa 0,0 l/m 0 min 0 min 98 W/m 6,4 km/h (2 Bft) 100,00 %
03.04.2020 18:32 11,3 C 10,6 C 10,6 C 56 % 1018,4 hPa 0,0 l/m 0 min 0 min 91 W/m 6,4 km/h (2 Bft) 100,00 %
03.04.2020 18:34 11,3 C 10,6 C 10,0 C 55 % 1018,4 hPa 0,0 l/m 0 min 0 min 90 W/m 12,9 km/h (3 Bft) 97,87 %
03.04.2020 18:36 11,2 C 10,6 C 10,0 C 55 % 1018,4 hPa 0,0 l/m 0 min 0 min 92 W/m 9,7 km/h (2 Bft) 100,00 %
03.04.2020 18:38 11,2 C 10,6 C 10,0 C 56 % 1018,4 hPa 0,0 l/m 0 min 0 min 95 W/m 9,7 km/h (2 Bft) 97,87 %
03.04.2020 18:40 11,1 C 10,6 C 10,0 C 55 % 1018,4 hPa 0,0 l/m 0 min 0 min 89 W/m 12,9 km/h (3 Bft) 100,00 %
03.04.2020 18:42 11,1 C 10,0 C 10,0 C 55 % 1018,4 hPa 0,0 l/m 0 min 0 min 76 W/m 16,1 km/h (3 Bft) 100,00 %
03.04.2020 18:44 11,1 C 10,0 C 10,0 C 55 % 1018,4 hPa 0,0 l/m 0 min 0 min 69 W/m 12,9 km/h (3 Bft) 100,00 %
03.04.2020 18:46 11,0 C 10,0 C 10,0 C 56 % 1018,4 hPa 0,0 l/m 0 min 0 min 65 W/m 9,7 km/h (2 Bft) 100,00 %
03.04.2020 18:48 10,9 C 10,0 C 9,4 C 56 % 1018,4 hPa 0,0 l/m 0 min 0 min 65 W/m 6,4 km/h (2 Bft) 100,00 %
03.04.2020 18:50 10,9 C 10,0 C 9,4 C 56 % 1018,5 hPa 0,0 l/m 0 min 0 min 64 W/m 12,9 km/h (3 Bft) 100,00 %
03.04.2020 18:52 10,8 C 10,0 C 9,4 C 56 % 1018,5 hPa 0,0 l/m 0 min 0 min 59 W/m 12,9 km/h (3 Bft) 97,83 %
03.04.2020 18:54 10,8 C 10,0 C 9,4 C 56 % 1018,5 hPa 0,0 l/m 0 min 0 min 58 W/m 19,3 km/h (3 Bft) 100,00 %
03.04.2020 18:56 10,7 C 10,0 C 9,4 C 57 % 1018,5 hPa 0,0 l/m 0 min 0 min 62 W/m 9,7 km/h (2 Bft) 100,00 %
03.04.2020 18:58 10,7 C 10,0 C 9,4 C 57 % 1018,5 hPa 0,0 l/m 0 min 0 min 62 W/m 16,1 km/h (3 Bft) 100,00 %
03.04.2020 19:00 10,6 C 10,0 C 9,4 C 57 % 1018,6 hPa 0,0 l/m 0 min 0 min 58 W/m 16,1 km/h (3 Bft) 100,00 %
03.04.2020 19:02 10,6 C 9,4 C 9,4 C 58 % 1018,5 hPa 0,0 l/m 0 min 0 min 59 W/m 22,5 km/h (4 Bft) 97,87 %
03.04.2020 19:04 10,6 C 9,4 C 9,4 C 58 % 1018,5 hPa 0,0 l/m 0 min 0 min 60 W/m 9,7 km/h (2 Bft) 100,00 %
03.04.2020 19:06 10,5 C 9,4 C 9,4 C 59 % 1018,5 hPa 0,0 l/m 0 min 0 min 63 W/m 16,1 km/h (3 Bft) 97,87 %
03.04.2020 19:08 10,5 C 9,4 C 9,4 C 59 % 1018,5 hPa 0,0 l/m 0 min 0 min 70 W/m 19,3 km/h (3 Bft) 100,00 %
03.04.2020 19:10 10,4 C 9,4 C 9,4 C 59 % 1018,6 hPa 0,0 l/m 0 min 0 min 72 W/m 19,3 km/h (3 Bft) 100,00 %
03.04.2020 19:12 10,4 C 9,4 C 9,4 C 59 % 1018,6 hPa 0,0 l/m 0 min 0 min 69 W/m 9,7 km/h (2 Bft) 100,00 %
03.04.2020 19:14 10,4 C 9,4 C 9,4 C 60 % 1018,6 hPa 0,0 l/m 0 min 0 min 63 W/m 12,9 km/h (3 Bft) 97,87 %
03.04.2020 19:15 10,3 C 9,4 C 9,4 C 60 % 1018,6 hPa 0,0 l/m 0 min 0 min 63 W/m 12,9 km/h (3 Bft) 100,00 %
03.04.2020 19:20 10,2 C 9,4 C 8,9 C 59 % 1018,7 hPa 0,0 l/m 0 min 0 min 55 W/m 12,9 km/h (3 Bft) 99,21 %
03.04.2020 19:22 10,2 C 9,4 C 8,9 C 59 % 1018,7 hPa 0,0 l/m 0 min 0 min 50 W/m 22,5 km/h (4 Bft) 98,28 %
03.04.2020 19:24 10,1 C 8,9 C 8,9 C 59 % 1018,7 hPa 0,0 l/m 0 min 0 min 53 W/m 22,5 km/h (4 Bft) 97,87 %
03.04.2020 19:26 10,1 C 8,9 C 8,9 C 59 % 1018,8 hPa 0,0 l/m 0 min 0 min 50 W/m 19,3 km/h (3 Bft) 97,87 %
03.04.2020 19:28 10,0 C 8,9 C 8,9 C 60 % 1018,8 hPa 0,0 l/m 0 min 0 min 42 W/m 19,3 km/h (3 Bft) 97,87 %
03.04.2020 19:30 9,9 C 8,9 C 8,3 C 60 % 1018,9 hPa 0,0 l/m 0 min 0 min 33 W/m 9,7 km/h (2 Bft) 95,74 %
03.04.2020 19:32 9,9 C 8,9 C 8,3 C 61 % 1018,8 hPa 0,0 l/m 0 min 0 min 28 W/m 12,9 km/h (3 Bft) 95,65 %
03.04.2020 19:34 9,8 C 8,3 C 8,3 C 61 % 1018,9 hPa 0,0 l/m 0 min 0 min 25 W/m 19,3 km/h (3 Bft) 89,36 %
03.04.2020 19:36 9,8 C 8,3 C 8,3 C 61 % 1018,9 hPa 0,0 l/m 0 min 0 min 23 W/m 12,9 km/h (3 Bft) 93,62 %
03.04.2020 19:38 9,7 C 8,3 C 7,8 C 61 % 1018,9 hPa 0,0 l/m 0 min 0 min 21 W/m 12,9 km/h (3 Bft) 91,49 %
03.04.2020 19:40 9,7 C 8,3 C 7,8 C 62 % 1019,0 hPa 0,0 l/m 0 min 0 min 21 W/m 6,4 km/h (2 Bft) 91,49 %
03.04.2020 19:42 9,6 C 8,3 C 7,8 C 62 % 1019,0 hPa 0,0 l/m 0 min 0 min 21 W/m 12,9 km/h (3 Bft) 91,49 %
03.04.2020 19:44 9,6 C 7,8 C 7,8 C 62 % 1019,1 hPa 0,0 l/m 0 min 0 min 20 W/m 12,9 km/h (3 Bft) 93,48 %
03.04.2020 19:46 9,4 C 7,8 C 7,8 C 63 % 1019,1 hPa 0,0 l/m 0 min 0 min 19 W/m 12,9 km/h (3 Bft) 93,62 %
03.04.2020 19:48 9,4 C 7,8 C 7,8 C 63 % 1019,1 hPa 0,0 l/m 0 min 0 min 18 W/m 19,3 km/h (3 Bft) 93,62 %
03.04.2020 19:50 9,3 C 7,8 C 7,8 C 63 % 1019,1 hPa 0,0 l/m 0 min 0 min 17 W/m 19,3 km/h (3 Bft) 93,62 %
03.04.2020 19:52 9,3 C 7,8 C 7,2 C 63 % 1019,1 hPa 0,0 l/m 0 min 0 min 16 W/m 12,9 km/h (3 Bft) 93,62 %
03.04.2020 19:54 9,2 C 7,8 C 7,2 C 64 % 1019,1 hPa 0,0 l/m 0 min 0 min 16 W/m 9,7 km/h (2 Bft) 93,48 %
03.04.2020 19:56 9,1 C 7,8 C 7,2 C 64 % 1019,2 hPa 0,0 l/m 0 min 0 min 16 W/m 19,3 km/h (3 Bft) 91,49 %
03.04.2020 19:58 9,1 C 7,8 C 7,2 C 64 % 1019,2 hPa 0,0 l/m 0 min 0 min 16 W/m 12,9 km/h (3 Bft) 93,62 %
03.04.2020 20:00 9,0 C 7,8 C 7,2 C 65 % 1019,2 hPa 0,0 l/m 0 min 0 min 15 W/m 9,7 km/h (2 Bft) 91,49 %
03.04.2020 20:02 9,0 C 7,2 C 7,2 C 65 % 1019,2 hPa 0,0 l/m 0 min 0 min 14 W/m 6,4 km/h (2 Bft) 53,19 %
03.04.2020 20:04 8,9 C 7,2 C 7,2 C 65 % 1019,2 hPa 0,0 l/m 0 min 0 min 11 W/m 9,7 km/h (2 Bft) 95,56 %
03.04.2020 20:06 8,8 C 7,2 C 7,2 C 65 % 1019,3 hPa 0,0 l/m 0 min 0 min 9 W/m 9,7 km/h (2 Bft) 93,48 %
03.04.2020 20:08 8,8 C 7,2 C 7,2 C 65 % 1019,3 hPa 0,0 l/m 0 min 0 min 7 W/m 12,9 km/h (3 Bft) 95,74 %
03.04.2020 20:09 8,8 C 7,2 C 7,2 C 66 % 1019,4 hPa 0,0 l/m 0 min 0 min 5 W/m 9,7 km/h (2 Bft) 95,74 %
03.04.2020 20:12 8,7 C 7,2 C 7,2 C 66 % 1019,3 hPa 0,0 l/m 0 min 0 min 3 W/m 19,3 km/h (3 Bft) 95,74 %
03.04.2020 20:14 8,6 C 7,2 C 7,2 C 66 % 1019,4 hPa 0,0 l/m 0 min 0 min 0 W/m 12,9 km/h (3 Bft) 93,62 %
03.04.2020 20:16 8,6 C 6,7 C 6,7 C 66 % 1019,4 hPa 0,0 l/m 0 min 0 min 0 W/m 9,7 km/h (2 Bft) 93,75 %
03.04.2020 20:18 8,5 C 6,7 C 6,7 C 66 % 1019,4 hPa 0,0 l/m 0 min 0 min 0 W/m 12,9 km/h (3 Bft) 95,74 %
03.04.2020 20:20 8,4 C 6,7 C 6,7 C 67 % 1019,5 hPa 0,0 l/m 0 min 0 min 0 W/m 16,1 km/h (3 Bft) 97,14 %
03.04.2020 20:22 8,3 C 6,7 C 6,7 C 67 % 1019,5 hPa 0,0 l/m 0 min 0 min 0 W/m 12,9 km/h (3 Bft) 92,59 %
03.04.2020 20:24 8,3 C 6,7 C 6,7 C 67 % 1019,6 hPa 0,0 l/m 0 min 0 min 0 W/m 12,9 km/h (3 Bft) 92,00 %
03.04.2020 20:26 8,2 C 6,7 C 6,7 C 68 % 1019,6 hPa 0,0 l/m 0 min 0 min 0 W/m 3,2 km/h (1 Bft) 95,83 %
03.04.2020 20:28 8,2 C 6,7 C 6,1 C 68 % 1019,6 hPa 0,0 l/m 0 min 0 min 0 W/m 0,0 km/h (0 Bft) 97,22 %
03.04.2020 20:30 8,2 C 6,1 C 6,1 C 69 % 1019,7 hPa 0,0 l/m 0 min 0 min 0 W/m 9,7 km/h (2 Bft) 94,34 %
03.04.2020 20:32 8,1 C 6,1 C 6,1 C 69 % 1019,6 hPa 0,0 l/m 0 min 0 min 0 W/m 19,3 km/h (3 Bft) 97,87 %
03.04.2020 20:34 8,1 C 6,1 C 6,1 C 69 % 1019,7 hPa 0,0 l/m 0 min 0 min 0 W/m 16,1 km/h (3 Bft) 97,87 %
03.04.2020 20:36 8,0 C 6,1 C 6,1 C 69 % 1019,7 hPa 0,0 l/m 0 min 0 min 0 W/m 12,9 km/h (3 Bft) 98,00 %
03.04.2020 20:38 7,9 C 6,1 C 6,1 C 69 % 1019,7 hPa 0,0 l/m 0 min 0 min 0 W/m 6,4 km/h (2 Bft) 95,83 %
03.04.2020 20:40 7,9 C 6,1 C 6,1 C 69 % 1019,8 hPa 0,0 l/m 0 min 0 min 0 W/m 3,2 km/h (1 Bft) 97,87 %
03.04.2020 20:42 7,8 C 6,1 C 6,1 C 70 % 1019,8 hPa 0,0 l/m 0 min 0 min 0 W/m 0,0 km/h (0 Bft) 97,14 %
03.04.2020 20:44 7,8 C 6,1 C 5,6 C 70 % 1019,9 hPa 0,0 l/m 0 min 0 min 0 W/m 0,0 km/h (0 Bft) 100,00 %
03.04.2020 20:46 7,8 C 6,1 C 5,6 C 70 % 1019,9 hPa 0,0 l/m 0 min 0 min 0 W/m 0,0 km/h (0 Bft) 97,87 %
03.04.2020 20:48 7,7 C 5,6 C 5,6 C 70 % 1020,0 hPa 0,0 l/m 0 min 0 min 0 W/m 0,0 km/h (0 Bft) 100,00 %
03.04.2020 20:50 7,7 C 5,6 C 5,6 C 71 % 1020,0 hPa 0,0 l/m 0 min 0 min 0 W/m 0,0 km/h (0 Bft) 100,00 %
03.04.2020 20:52 7,6 C 5,6 C 5,6 C 71 % 1020,0 hPa 0,0 l/m 0 min 0 min 0 W/m 6,4 km/h (2 Bft) 100,00 %
03.04.2020 20:54 7,6 C 5,6 C 5,0 C 71 % 1020,0 hPa 0,0 l/m 0 min 0 min 0 W/m 0,0 km/h (0 Bft) 100,00 %
03.04.2020 20:56 7,6 C 5,6 C 5,0 C 71 % 1020,0 hPa 0,0 l/m 0 min 0 min 0 W/m 0,0 km/h (0 Bft) 100,00 %
03.04.2020 20:58 7,5 C 5,6 C 5,0 C 71 % 1020,0 hPa 0,0 l/m 0 min 0 min 0 W/m 0,0 km/h (0 Bft) 100,00 %
03.04.2020 21:00 7,4 C 5,6 C 5,0 C 71 % 1020,1 hPa 0,0 l/m 0 min 0 min 0 W/m 0,0 km/h (0 Bft) 100,00 %
03.04.2020 21:02 7,4 C 5,0 C 5,0 C 71 % 1020,1 hPa 0,0 l/m 0 min 0 min 0 W/m 0,0 km/h (0 Bft) 100,00 %
03.04.2020 21:04 7,3 C 5,0 C 5,0 C 71 % 1020,2 hPa 0,0 l/m 0 min 0 min 0 W/m 0,0 km/h (0 Bft) 100,00 %
03.04.2020 21:06 7,3 C 5,0 C 4,4 C 71 % 1020,2 hPa 0,0 l/m 0 min 0 min 0 W/m 0,0 km/h (0 Bft) 100,00 %
03.04.2020 21:08 7,2 C 5,0 C 4,4 C 71 % 1020,2 hPa 0,0 l/m 0 min 0 min 0 W/m 3,2 km/h (1 Bft) 100,00 %
03.04.2020 21:10 7,2 C 5,0 C 4,4 C 72 % 1020,2 hPa 0,0 l/m 0 min 0 min 0 W/m 6,4 km/h (2 Bft) 100,00 %
03.04.2020 21:15 7,1 C 5,0 C 4,4 C 72 % 1020,3 hPa 0,0 l/m 0 min 0 min 0 W/m 3,2 km/h (1 Bft) 100,00 %
03.04.2020 21:16 7,0 C 5,0 C 4,4 C 72 % 1020,3 hPa 0,0 l/m 0 min 0 min 0 W/m 0,0 km/h (0 Bft) 100,00 %
03.04.2020 21:18 6,9 C 5,0 C 4,4 C 72 % 1020,3 hPa 0,0 l/m 0 min 0 min 0 W/m 0,0 km/h (0 Bft) 97,87 %
03.04.2020 21:20 6,9 C 4,4 C 3,9 C 72 % 1020,3 hPa 0,0 l/m 0 min 0 min 0 W/m 0,0 km/h (0 Bft) 97,87 %
03.04.2020 21:22 6,8 C 4,4 C 3,9 C 73 % 1020,3 hPa 0,0 l/m 0 min 0 min 0 W/m 0,0 km/h (0 Bft) 100,00 %
03.04.2020 21:24 6,8 C 4,4 C 3,9 C 73 % 1020,3 hPa 0,0 l/m 0 min 0 min 0 W/m 0,0 km/h (0 Bft) 95,65 %
03.04.2020 21:26 6,7 C 4,4 C 3,9 C 73 % 1020,3 hPa 0,0 l/m 0 min 0 min 0 W/m 3,2 km/h (1 Bft) 100,00 %
03.04.2020 21:28 6,7 C 4,4 C 3,9 C 73 % 1020,4 hPa 0,0 l/m 0 min 0 min 0 W/m 0,0 km/h (0 Bft) 97,87 %
03.04.2020 21:30 6,7 C 4,4 C 3,9 C 73 % 1020,4 hPa 0,0 l/m 0 min 0 min 0 W/m 3,2 km/h (1 Bft) 100,00 %
03.04.2020 21:32 6,6 C 4,4 C 3,9 C 73 % 1020,4 hPa 0,0 l/m 0 min 0 min 0 W/m 0,0 km/h (0 Bft) 97,87 %
03.04.2020 21:34 6,5 C 4,4 C 3,9 C 73 % 1020,5 hPa 0,0 l/m 0 min 0 min 0 W/m 0,0 km/h (0 Bft) 97,87 %
03.04.2020 21:36 6,5 C 4,4 C 3,9 C 74 % 1020,5 hPa 0,0 l/m 0 min 0 min 0 W/m 0,0 km/h (0 Bft) 97,83 %
03.04.2020 21:38 6,4 C 4,4 C 3,9 C 74 % 1020,6 hPa 0,0 l/m 0 min 0 min 0 W/m 6,4 km/h (2 Bft) 97,87 %
03.04.2020 21:40 6,3 C 4,4 C 3,3 C 74 % 1020,6 hPa 0,0 l/m 0 min 0 min 0 W/m 0,0 km/h (0 Bft) 97,87 %
03.04.2020 21:42 6,3 C 3,9 C 3,3 C 74 % 1020,6 hPa 0,0 l/m 0 min 0 min 0 W/m 0,0 km/h (0 Bft) 97,87 %
03.04.2020 21:44 6,2 C 3,9 C 3,3 C 74 % 1020,7 hPa 0,0 l/m 0 min 0 min 0 W/m 3,2 km/h (1 Bft) 97,87 %
03.04.2020 21:46 6,2 C 3,9 C 3,3 C 74 % 1020,7 hPa 0,0 l/m 0 min 0 min 0 W/m 0,0 km/h (0 Bft) 97,87 %
03.04.2020 21:48 6,1 C 3,9 C 3,3 C 74 % 1020,7 hPa 0,0 l/m 0 min 0 min 0 W/m 0,0 km/h (0 Bft) 97,83 %
03.04.2020 21:50 6,0 C 3,9 C 3,3 C 74 % 1020,8 hPa 0,0 l/m 0 min 0 min 0 W/m 0,0 km/h (0 Bft) 97,87 %
03.04.2020 21:52 5,9 C 4,4 C 3,3 C 74 % 1020,8 hPa 0,0 l/m 0 min 0 min 0 W/m 0,0 km/h (0 Bft) 97,87 %
03.04.2020 21:54 5,9 C 4,4 C 3,3 C 75 % 1020,8 hPa 0,0 l/m 0 min 0 min 0 W/m 0,0 km/h (0 Bft) 97,87 %
03.04.2020 21:56 5,8 C 4,4 C 3,3 C 75 % 1020,8 hPa 0,0 l/m 0 min 0 min 0 W/m 3,2 km/h (1 Bft) 93,62 %
03.04.2020 21:58 5,8 C 3,9 C 3,3 C 75 % 1020,8 hPa 0,0 l/m 0 min 0 min 0 W/m 6,4 km/h (2 Bft) 97,87 %
03.04.2020 22:00 5,7 C 3,9 C 3,3 C 75 % 1020,9 hPa 0,0 l/m 0 min 0 min 0 W/m 3,2 km/h (1 Bft) 100,00 %
03.04.2020 22:02 5,7 C 3,9 C 3,3 C 75 % 1020,8 hPa 0,0 l/m 0 min 0 min 0 W/m 0,0 km/h (0 Bft) 100,00 %
03.04.2020 22:04 5,7 C 3,9 C 3,3 C 74 % 1020,9 hPa 0,0 l/m 0 min 0 min 0 W/m 0,0 km/h (0 Bft) 100,00 %
03.04.2020 22:06 5,6 C 3,9 C 3,3 C 75 % 1020,8 hPa 0,0 l/m 0 min 0 min 0 W/m 0,0 km/h (0 Bft) 100,00 %
03.04.2020 22:08 5,6 C 3,9 C 3,3 C 74 % 1020,9 hPa 0,0 l/m 0 min 0 min 0 W/m 0,0 km/h (0 Bft) 100,00 %
03.04.2020 22:10 5,6 C 3,9 C 3,3 C 74 % 1020,8 hPa 0,0 l/m 0 min 0 min 0 W/m 0,0 km/h (0 Bft) 100,00 %
03.04.2020 22:12 5,5 C 3,9 C 2,8 C 74 % 1020,9 hPa 0,0 l/m 0 min 0 min 0 W/m 0,0 km/h (0 Bft) 100,00 %
03.04.2020 22:14 5,4 C 3,9 C 2,8 C 74 % 1020,9 hPa 0,0 l/m 0 min 0 min 0 W/m 0,0 km/h (0 Bft) 100,00 %
03.04.2020 22:16 5,4 C 3,9 C 2,8 C 74 % 1021,0 hPa 0,0 l/m 0 min 0 min 0 W/m 0,0 km/h (0 Bft) 100,00 %
03.04.2020 22:18 5,3 C 3,9 C 2,8 C 74 % 1021,0 hPa 0,0 l/m 0 min 0 min 0 W/m 0,0 km/h (0 Bft) 100,00 %
03.04.2020 22:20 5,3 C 3,9 C 2,8 C 74 % 1021,0 hPa 0,0 l/m 0 min 0 min 0 W/m 3,2 km/h (1 Bft) 100,00 %
03.04.2020 22:22 5,3 C 3,9 C 2,8 C 74 % 1021,1 hPa 0,0 l/m 0 min 0 min 0 W/m 0,0 km/h (0 Bft) 100,00 %
03.04.2020 22:24 5,3 C 3,9 C 2,8 C 74 % 1021,1 hPa 0,0 l/m 0 min 0 min 0 W/m 3,2 km/h (1 Bft) 100,00 %
03.04.2020 22:26 5,2 C 3,9 C 2,8 C 74 % 1021,1 hPa 0,0 l/m 0 min 0 min 0 W/m 6,4 km/h (2 Bft) 100,00 %
03.04.2020 22:28 5,2 C 3,9 C 2,8 C 74 % 1021,1 hPa 0,0 l/m 0 min 0 min 0 W/m 0,0 km/h (0 Bft) 100,00 %
03.04.2020 22:30 5,2 C 3,9 C 2,8 C 74 % 1021,2 hPa 0,0 l/m 0 min 0 min 0 W/m 0,0 km/h (0 Bft) 100,00 %
03.04.2020 22:32 5,1 C 3,3 C 2,8 C 74 % 1021,2 hPa 0,0 l/m 0 min 0 min 0 W/m 0,0 km/h (0 Bft) 100,00 %
03.04.2020 22:34 5,1 C 3,3 C 2,8 C 74 % 1021,2 hPa 0,0 l/m 0 min 0 min 0 W/m 0,0 km/h (0 Bft) 100,00 %
03.04.2020 22:36 5,1 C 3,3 C 2,2 C 74 % 1021,2 hPa 0,0 l/m 0 min 0 min 0 W/m 0,0 km/h (0 Bft) 100,00 %
03.04.2020 22:38 5,1 C 3,3 C 2,2 C 74 % 1021,2 hPa 0,0 l/m 0 min 0 min 0 W/m 3,2 km/h (1 Bft) 100,00 %
03.04.2020 22:40 5,0 C 3,3 C 2,2 C 74 % 1021,3 hPa 0,0 l/m 0 min 0 min 0 W/m 0,0 km/h (0 Bft) 100,00 %
03.04.2020 22:42 4,9 C 3,3 C 2,2 C 74 % 1021,3 hPa 0,0 l/m 0 min 0 min 0 W/m 0,0 km/h (0 Bft) 100,00 %
03.04.2020 22:44 4,9 C 3,3 C 2,2 C 74 % 1021,3 hPa 0,0 l/m 0 min 0 min 0 W/m 0,0 km/h (0 Bft) 97,87 %
03.04.2020 22:46 4,9 C 3,3 C 2,2 C 74 % 1021,3 hPa 0,0 l/m 0 min 0 min 0 W/m 0,0 km/h (0 Bft) 97,83 %
03.04.2020 22:48 4,8 C 2,8 C 2,2 C 74 % 1021,3 hPa 0,0 l/m 0 min 0 min 0 W/m 0,0 km/h (0 Bft) 100,00 %
03.04.2020 22:50 4,8 C 2,8 C 1,7 C 74 % 1021,3 hPa 0,0 l/m 0 min 0 min 0 W/m 0,0 km/h (0 Bft) 100,00 %
03.04.2020 22:52 4,8 C 2,8 C 1,7 C 74 % 1021,4 hPa 0,0 l/m 0 min 0 min 0 W/m 0,0 km/h (0 Bft) 100,00 %
03.04.2020 22:54 4,7 C 2,8 C 1,7 C 74 % 1021,4 hPa 0,0 l/m 0 min 0 min 0 W/m 0,0 km/h (0 Bft) 100,00 %
03.04.2020 22:56 4,7 C 2,8 C 1,7 C 74 % 1021,3 hPa 0,0 l/m 0 min 0 min 0 W/m 0,0 km/h (0 Bft) 100,00 %
03.04.2020 22:58 4,7 C 2,8 C 1,7 C 74 % 1021,4 hPa 0,0 l/m 0 min 0 min 0 W/m 0,0 km/h (0 Bft) 100,00 %
03.04.2020 23:00 4,6 C 2,2 C 1,7 C 74 % 1021,4 hPa 0,0 l/m 0 min 0 min 0 W/m 0,0 km/h (0 Bft) 100,00 %
03.04.2020 23:02 4,6 C 2,2 C 1,7 C 74 % 1021,4 hPa 0,0 l/m 0 min 0 min 0 W/m 0,0 km/h (0 Bft) 97,87 %
03.04.2020 23:04 4,6 C 2,2 C 1,7 C 74 % 1021,4 hPa 0,0 l/m 0 min 0 min 0 W/m 0,0 km/h (0 Bft) 97,87 %
03.04.2020 23:06 4,5 C 2,2 C 1,7 C 74 % 1021,4 hPa 0,0 l/m 0 min 0 min 0 W/m 0,0 km/h (0 Bft) 100,00 %
03.04.2020 23:08 4,4 C 2,2 C 1,1 C 74 % 1021,4 hPa 0,0 l/m 0 min 0 min 0 W/m 0,0 km/h (0 Bft) 100,00 %
03.04.2020 23:10 4,4 C 2,2 C 1,1 C 74 % 1021,4 hPa 0,0 l/m 0 min 0 min 0 W/m 0,0 km/h (0 Bft) 95,65 %
03.04.2020 23:12 4,3 C 2,2 C 1,1 C 74 % 1021,4 hPa 0,0 l/m 0 min 0 min 0 W/m 0,0 km/h (0 Bft) 97,87 %
03.04.2020 23:14 4,3 C 2,2 C 1,1 C 75 % 1021,5 hPa 0,0 l/m 0 min 0 min 0 W/m 0,0 km/h (0 Bft) 97,87 %
03.04.2020 23:16 4,3 C 2,8 C 1,1 C 75 % 1021,5 hPa 0,0 l/m 0 min 0 min 0 W/m 0,0 km/h (0 Bft) 95,74 %
03.04.2020 23:18 4,2 C 2,8 C 1,1 C 75 % 1021,5 hPa 0,0 l/m 0 min 0 min 0 W/m 0,0 km/h (0 Bft) 95,74 %
03.04.2020 23:20 4,2 C 2,8 C 1,1 C 75 % 1021,5 hPa 0,0 l/m 0 min 0 min 0 W/m 0,0 km/h (0 Bft) 95,74 %
03.04.2020 23:22 4,1 C 2,2 C 1,1 C 75 % 1021,5 hPa 0,0 l/m 0 min 0 min 0 W/m 0,0 km/h (0 Bft) 95,65 %
03.04.2020 23:24 4,1 C 2,2 C 1,1 C 75 % 1021,5 hPa 0,0 l/m 0 min 0 min 0 W/m 0,0 km/h (0 Bft) 95,74 %
03.04.2020 23:26 4,1 C 2,2 C 1,1 C 75 % 1021,6 hPa 0,0 l/m 0 min 0 min 0 W/m 0,0 km/h (0 Bft) 95,74 %
03.04.2020 23:28 4,0 C 2,2 C 1,1 C 75 % 1021,5 hPa 0,0 l/m 0 min 0 min 0 W/m 0,0 km/h (0 Bft) 95,74 %
03.04.2020 23:30 3,9 C 2,2 C 1,1 C 75 % 1021,6 hPa 0,0 l/m 0 min 0 min 0 W/m 0,0 km/h (0 Bft) 95,74 %
03.04.2020 23:32 3,9 C 1,7 C 1,1 C 75 % 1021,6 hPa 0,0 l/m 0 min 0 min 0 W/m 0,0 km/h (0 Bft) 95,65 %
03.04.2020 23:34 3,8 C 1,7 C 1,1 C 75 % 1021,6 hPa 0,0 l/m 0 min 0 min 0 W/m 0,0 km/h (0 Bft) 95,74 %
03.04.2020 23:36 3,8 C 1,7 C 0,6 C 75 % 1021,6 hPa 0,0 l/m 0 min 0 min 0 W/m 0,0 km/h (0 Bft) 95,74 %
03.04.2020 23:38 3,8 C 1,7 C 0,6 C 75 % 1021,6 hPa 0,0 l/m 0 min 0 min 0 W/m 0,0 km/h (0 Bft) 97,87 %
03.04.2020 23:40 3,7 C 2,2 C 0,6 C 76 % 1021,6 hPa 0,0 l/m 0 min 0 min 0 W/m 0,0 km/h (0 Bft) 97,87 %
03.04.2020 23:42 3,7 C 2,2 C 0,6 C 76 % 1021,6 hPa 0,0 l/m 0 min 0 min 0 W/m 0,0 km/h (0 Bft) 97,87 %
03.04.2020 23:44 3,6 C 2,2 C 0,6 C 76 % 1021,6 hPa 0,0 l/m 0 min 0 min 0 W/m 0,0 km/h (0 Bft) 97,83 %
03.04.2020 23:46 3,6 C 1,7 C 0,6 C 76 % 1021,6 hPa 0,0 l/m 0 min 0 min 0 W/m 0,0 km/h (0 Bft) 93,62 %
03.04.2020 23:48 3,5 C 1,7 C 0,6 C 76 % 1021,7 hPa 0,0 l/m 0 min 0 min 0 W/m 0,0 km/h (0 Bft) 97,87 %
03.04.2020 23:50 3,5 C 1,7 C 0,6 C 76 % 1021,6 hPa 0,0 l/m 0 min 0 min 0 W/m 0,0 km/h (0 Bft) 97,87 %
03.04.2020 23:52 3,4 C 1,7 C 0,6 C 76 % 1021,7 hPa 0,0 l/m 0 min 0 min 0 W/m 0,0 km/h (0 Bft) 97,87 %
03.04.2020 23:54 3,4 C 1,7 C 0,6 C 76 % 1021,7 hPa 0,0 l/m 0 min 0 min 0 W/m 0,0 km/h (0 Bft) 95,74 %
03.04.2020 23:56 3,3 C 1,7 C 0,6 C 76 % 1021,7 hPa 0,0 l/m 0 min 0 min 0 W/m 0,0 km/h (0 Bft) 97,83 %
03.04.2020 23:58 3,3 C 2,2 C 0,6 C 76 % 1021,7 hPa 0,0 l/m 0 min 0 min 0 W/m 0,0 km/h (0 Bft) 97,87 %
_ Min-Zeit 23:56 23:32 23:36 18:20 01:56 - - - - 00:04 20:02
Minimum _ 3,3 C 1,7 C 0,6 C 54 % 1011,6 hPa - - - - 0,0 km/h (0 Bft) 53,19 %
_ Max-Zeit 16:40 16:38 13:56 07:22 23:48 00:00 18:08 00:22 11:40 16:16 00:22
Maximum _ 12,2 C 16,7 C 13,9 C 90 % 1021,7 hPa 0,0 l/m 4 min 2 min 822 W/m 35,4 km/h
NW (5 Bft)
100,00 %
Durchschnitt _ 8,8 C 8,5 C 7,8 C 75 % 1015,9 hPa #0,0 l/m #3:38 h #32 min. 188 W/m 8,6 km/h (2 Bft) 97,26 %
© 2020 W. Hausmann